GFSSW_sfc_dewp_057.txt.gz
Dewpoint
54 54 54 54 54 54 53 52 53 52 52 52 53 53 54 54 54 41 40 39 43 51 50 22 21 17 19 21 24 25 26 24 25 25 26 25 25 31 32 30 29 29 30 33 34
53 53 54 54 53 54 54 53 52 52 52 52 53 53 53 54 45 32 48 57 51 50 33 19 12 13 16 19 23 23 23 23 23 24 25 26 26 30 32 32 32 30 31 32 33
52 53 53 53 52 52 53 53 53 52 52 52 52 52 53 52 39 32 55 54 56 53 32 24 17 14 14 15 19 23 22 21 21 23 23 23 25 29 31 32 32 31 30 31 32
52 52 51 51 51 51 51 52 52 53 52 52 52 52 52 47 29 38 56 55 56 46 29 25 18 15 13 11 15 18 22 22 22 19 22 24 27 28 29 30 32 31 30 30 29
52 52 51 51 51 51 51 51 52 51 51 51 51 52 48 35 21 46 57 54 42 30 26 23 19 14 10 10 14 17 19 20 21 21 22 24 25 24 25 28 26 26 26 26 29
52 52 52 50 50 50 51 52 52 51 51 51 51 52 47 26 26 37 37 35 30 23 21 21 19 19 16 12 12 16 16 17 18 20 21 20 19 20 22 25 22 23 23 25 28
51 50 49 50 51 51 51 52 51 51 51 51 51 47 39 24 21 32 34 28 24 22 20 20 21 19 18 16 15 14 14 16 14 17 18 19 17 17 19 20 20 20 22 24 27
51 51 50 51 51 51 51 51 52 52 52 52 52 46 33 18 22 27 28 27 24 22 21 21 19 20 19 18 19 15 14 9 8 9 10 11 11 12 14 16 18 20 20 23 28
50 51 51 51 51 51 51 51 53 54 52 52 50 45 30 35 24 26 26 22 20 21 23 21 19 19 19 17 15 15 9 8 6 8 9 9 11 12 15 19 21 22 23 24 26
50 51 51 51 51 50 51 52 54 53 50 46 42 36 33 18 23 25 25 22 18 18 20 21 20 19 17 14 10 10 11 9 9 14 15 13 14 14 17 19 22 21 23 24 25
49 51 51 51 50 51 50 46 45 45 42 35 30 29 28 27 29 25 23 20 19 19 18 19 16 14 14 17 14 14 13 13 12 12 14 17 17 15 16 18 19 20 23 24 26
49 50 51 50 51 51 49 34 34 35 32 28 26 27 27 26 21 21 20 18 20 17 18 15 15 14 14 15 15 13 12 12 13 13 16 18 17 18 18 18 19 22 22 23 25
49 50 51 51 52 49 38 35 35 36 34 23 22 23 24 25 22 20 20 18 17 16 15 14 13 13 12 14 13 13 13 14 13 15 16 16 16 17 16 18 18 18 20 21 24
50 51 51 51 46 37 37 36 34 38 30 24 21 21 23 22 21 20 19 18 17 15 14 14 12 11 12 12 12 13 12 12 13 14 11 16 11 15 14 14 15 16 19 21 24
50 50 51 51 46 35 37 35 35 40 26 20 18 21 21 20 18 18 20 19 18 17 16 13 12 13 13 12 14 14 14 14 14 14 16 14 12 14 15 13 15 18 18 20 23
50 50 51 47 44 36 35 37 41 34 24 19 18 17 18 18 18 17 20 20 20 19 18 17 16 14 14 14 15 16 15 17 16 15 13 15 12 9 11 15 14 18 18 19 20
49 49 49 43 37 38 38 37 32 27 26 19 18 18 18 18 19 20 21 23 22 21 22 20 18 17 16 16 17 18 20 13 12 12 11 14 11 14 16 16 15 17 18 21 25
48 48 48 40 39 41 39 34 30 22 19 22 22 20 19 18 19 19 21 21 22 22 20 19 17 21 21 17 16 18 21 14 13 11 7 16 13 15 17 20 21 20 24 25 27
47 46 45 45 41 40 35 29 27 25 23 20 20 20 20 18 19 22 22 20 19 21 25 23 20 26 23 21 19 18 16 19 18 17 15 12 16 16 22 22 22 23 23 24 28
44 41 39 44 44 41 35 30 26 27 25 23 22 22 21 17 18 21 19 19 20 20 24 23 21 21 25 22 21 22 21 24 22 14 10 9 12 11 20 22 22 22 23 25 26
47 34 43 43 43 36 32 26 24 24 26 26 24 24 23 22 21 20 18 19 23 21 21 24 24 22 21 25 24 21 20 19 20 26 24 15 12 22 26 23 23 23 25 27 28
41 28 42 39 31 33 24 25 30 21 23 25 27 27 27 25 24 21 22 24 31 26 20 24 30 21 19 20 21 18 21 26 21 19 15 16 14 19 26 24 26 25 28 28 30
32 28 39 32 32 23 20 17 18 21 23 23 26 27 28 27 26 24 24 28 28 27 25 30 32 30 22 19 19 20 18 20 25 31 28 26 24 24 26 25 25 25 25 27 30
29 24 25 26 27 27 23 21 20 20 22 25 27 27 27 26 26 24 28 30 30 27 36 33 29 25 21 21 34 33 32 30 33 34 30 25 21 23 25 25 26 26 27 26 29
29 27 31 18 19 25 24 23 21 21 24 25 25 25 24 25 22 21 21 23 27 34 29 30 28 27 26 22 21 22 22 21 23 27 27 23 21 23 24 26 27 27 28 31 31
24 24 22 23 27 26 25 23 21 21 22 21 21 20 24 25 23 21 20 22 24 26 27 32 33 31 27 24 22 20 15 15 16 16 17 16 16 18 22 24 28 29 32 34 35
27 31 31 32 26 19 20 21 19 20 21 20 23 23 23 23 25 25 27 28 28 28 30 32 35 32 28 24 28 22 16 15 15 16 18 19 23 27 26 27 32 34 35 35 35

GFSSW_sfc_dewp_060.txt.gz
Dewpoint
53 54 54 54 54 53 53 53 53 53 53 53 53 53 54 54 54 43 40 44 46 55 46 19 18 23 21 20 22 23 23 23 23 24 26 26 25 27 27 27 27 28 29 30 34
52 53 53 53 52 51 52 52 53 53 52 53 53 53 53 53 47 36 48 57 56 53 24 19 14 15 14 17 19 21 20 20 20 21 22 24 25 25 29 29 30 31 30 30 31
52 52 53 52 51 51 51 51 52 53 53 52 52 53 53 51 38 30 59 60 57 50 34 33 20 14 11 14 17 20 21 20 19 19 19 20 21 25 29 30 32 31 32 32 33
52 53 52 52 52 51 51 51 51 52 52 52 52 52 53 47 32 34 58 58 56 41 38 25 20 14 12 13 14 15 19 21 20 20 19 18 20 21 26 34 33 33 34 33 32
51 51 51 50 50 51 52 51 51 52 52 52 52 52 48 37 29 41 59 54 39 36 29 23 21 17 12 11 12 11 13 16 19 20 20 20 19 21 23 31 31 34 33 32 32
50 50 50 50 51 51 52 52 51 51 52 51 52 52 45 31 31 36 32 32 31 27 21 19 19 18 17 14 11 11 12 15 17 19 20 19 20 21 24 27 26 26 28 27 27
51 50 50 51 51 51 52 52 51 52 52 52 52 47 40 34 16 32 30 30 26 22 20 18 19 19 18 15 14 13 12 14 15 16 18 19 19 19 21 21 20 22 26 25 26
51 50 51 52 51 51 51 52 53 52 53 53 52 44 37 30 26 24 30 28 26 23 20 20 20 18 18 17 16 15 14 10 11 12 15 16 16 18 20 20 20 20 22 23 25
49 51 51 51 51 51 52 52 52 54 54 53 48 43 36 35 16 21 25 24 23 21 22 20 19 17 16 15 13 14 12 9 7 8 7 10 12 12 12 15 18 21 23 21 26
50 51 51 51 51 52 52 52 53 52 51 45 43 39 35 28 14 22 25 25 19 17 18 19 18 16 15 14 13 10 8 10 10 8 7 7 9 11 12 15 17 20 21 24 25
50 50 51 51 51 52 50 48 46 46 45 38 34 33 26 24 26 25 22 22 19 18 16 18 16 14 15 16 14 12 12 13 14 11 14 15 16 16 16 18 19 23 26 28 29
50 50 51 52 52 52 49 44 32 32 30 30 31 24 25 25 22 22 23 19 19 17 17 17 15 17 15 14 14 16 14 14 14 14 14 15 15 17 19 21 22 25 26 27 29
50 51 51 52 52 49 45 33 32 32 31 30 22 21 22 22 21 21 20 18 17 17 17 15 14 12 13 11 13 15 13 12 10 12 14 15 16 18 17 20 22 22 26 26 30
50 50 52 52 47 39 37 35 31 37 29 28 20 20 20 22 21 22 19 19 16 14 15 14 14 13 11 12 12 12 12 12 13 13 12 15 12 17 17 17 21 22 24 24 26
50 50 51 51 45 38 34 32 34 38 30 23 18 22 19 19 19 19 20 18 17 16 17 16 13 13 12 12 12 12 13 14 13 13 14 13 11 14 17 14 16 20 18 21 24
49 49 50 44 46 42 35 35 39 35 31 21 16 16 16 18 19 18 19 20 19 18 19 18 18 17 16 14 13 15 15 16 16 15 13 14 12 12 12 15 16 18 19 20 20
49 48 48 42 38 36 37 35 32 31 26 18 18 16 16 16 17 18 18 19 20 20 21 21 20 18 17 16 17 17 19 13 14 14 14 15 13 16 18 17 15 19 19 22 24
47 47 47 40 39 39 39 34 30 26 23 21 19 17 17 17 17 17 18 18 20 22 22 26 26 27 25 32 26 18 19 18 16 18 18 19 23 14 18 18 19 20 21 21 26
46 45 45 44 44 39 36 30 29 25 25 21 18 17 17 17 17 19 19 18 20 24 22 28 25 25 25 26 30 24 16 19 23 27 22 17 19 23 21 20 21 21 23 25 28
40 44 40 45 44 40 34 32 29 26 24 23 22 20 20 19 20 19 20 25 26 29 23 21 18 17 17 28 31 24 22 20 25 20 15 12 14 13 24 22 21 22 23 25 27
43 39 44 44 41 34 31 29 26 25 21 22 22 22 22 22 22 20 19 25 31 29 29 24 23 22 18 18 21 26 23 21 28 29 27 20 19 31 29 31 30 29 25 26 28
38 33 41 36 23 29 32 22 27 17 21 20 23 23 25 25 24 21 21 26 33 32 29 34 34 27 17 22 21 22 25 26 28 26 21 20 17 30 30 28 35 31 28 25 28
35 33 41 35 30 25 25 19 19 17 19 22 23 24 26 25 25 23 24 28 29 30 32 35 32 25 22 26 28 29 34 32 33 33 30 28 24 26 38 33 33 35 33 27 32
37 27 30 28 26 27 25 22 20 19 18 22 25 25 26 24 24 22 19 28 33 30 33 32 27 24 19 18 34 32 30 29 30 33 32 26 25 24 27 31 35 38 37 30 34
37 31 32 24 26 29 27 24 21 21 22 24 22 21 20 21 21 21 21 19 21 35 32 35 30 26 20 19 21 32 29 26 26 26 29 24 22 23 25 26 27 30 32 34 38
31 28 31 31 32 28 29 23 22 20 19 18 21 21 23 24 23 22 21 22 21 25 33 34 35 32 26 24 23 21 19 20 19 19 17 24 26 18 29 32 33 30 36 38 39
36 32 29 33 32 28 24 19 18 19 19 19 21 21 22 23 25 26 28 28 27 27 28 28 32 30 26 23 22 24 22 23 21 21 14 14 28 34 32 35 37 36 34 37 32

GFSSW_sfc_dewp_063.txt.gz
Dewpoint
52 52 52 53 53 52 52 52 52 53 54 53 53 53 54 54 54 45 43 43 46 55 52 33 20 14 24 24 23 23 21 21 23 26 26 26 25 25 23 23 26 29 31 36 35
52 52 52 52 52 52 51 51 51 52 52 53 53 53 53 53 49 44 46 58 58 57 29 23 13 11 21 18 19 18 19 20 22 23 22 21 20 22 27 28 29 32 33 33 34
51 51 51 51 51 51 51 51 51 52 52 53 53 53 53 52 43 34 61 57 58 55 27 28 34 24 13 13 15 17 16 20 21 20 20 19 19 20 24 28 30 31 33 35 34
51 51 51 51 51 50 51 51 52 52 52 53 53 53 53 49 33 37 61 60 59 41 34 37 33 19 15 12 12 13 17 18 20 21 21 20 20 20 21 34 34 37 37 38 32
51 50 51 50 51 51 51 51 52 52 52 52 53 53 50 43 37 47 60 59 43 36 37 37 26 21 14 12 12 13 14 14 18 20 20 21 21 21 21 37 37 34 37 38 33
51 50 50 51 51 51 51 51 51 51 51 52 53 52 48 34 35 43 47 40 34 33 32 25 19 19 18 17 16 14 12 12 11 13 17 19 19 20 22 28 29 32 32 33 30
51 50 50 51 51 51 51 51 51 52 52 52 52 49 41 37 34 38 35 31 30 28 25 21 20 19 20 18 18 15 14 13 13 15 16 17 17 19 23 24 23 23 24 30 30
50 50 50 51 51 51 51 52 53 53 52 53 52 48 40 35 35 32 30 29 30 27 24 22 21 19 18 17 16 14 15 13 12 13 14 17 13 17 21 21 23 23 22 22 28
51 50 50 51 51 51 52 53 52 54 55 53 49 45 36 37 22 23 25 29 27 25 23 20 21 21 18 16 14 15 12 12 13 14 12 13 13 17 21 18 17 20 24 22 24
51 51 50 50 51 52 53 53 52 53 51 48 43 41 42 34 21 19 24 26 26 21 20 20 19 17 16 14 12 13 11 11 12 12 10 9 9 13 18 16 16 21 21 28 30
50 51 51 52 52 52 51 47 47 47 46 40 40 37 34 24 21 22 26 25 25 22 17 19 16 17 16 16 15 13 12 11 13 15 14 12 11 16 18 21 18 19 20 24 25
50 50 51 52 53 53 50 44 34 31 30 37 40 38 35 25 24 25 28 22 22 19 19 17 16 17 18 17 16 15 15 16 17 16 13 16 18 18 18 20 21 23 26 24 27
50 51 51 52 52 50 44 44 37 33 31 30 29 30 26 22 23 23 22 21 20 17 17 17 16 17 15 14 14 12 15 16 14 14 13 15 17 21 20 19 18 19 22 28 28
50 50 50 50 47 43 40 39 32 39 29 30 24 20 20 22 23 23 23 21 19 16 16 15 15 14 14 13 14 11 15 13 13 15 14 18 13 16 19 19 19 18 17 21 28
50 50 50 49 46 41 39 35 39 41 30 26 22 21 20 21 22 23 23 21 19 17 16 15 17 16 15 14 14 12 16 14 18 16 15 13 14 13 17 14 16 20 19 20 21
49 49 49 46 48 43 43 38 39 35 32 23 18 17 17 19 19 20 20 21 20 19 18 18 19 18 18 17 17 17 19 19 19 16 14 14 15 13 14 14 15 19 21 23 22
48 47 46 43 40 38 39 38 32 31 33 22 18 19 18 17 17 19 19 19 18 18 19 19 20 23 30 27 19 18 17 15 16 15 13 15 17 15 19 19 17 18 22 21 23
47 47 48 42 40 40 41 36 29 28 27 28 22 19 14 15 16 17 20 19 20 24 30 30 28 31 32 35 36 35 30 20 17 20 19 25 26 27 27 24 24 25 25 26 25
47 45 46 46 45 45 38 32 30 30 28 24 23 21 19 19 21 21 21 23 25 30 29 30 34 35 36 36 34 32 30 30 23 19 24 24 24 25 24 25 23 23 23 24 26
42 42 46 47 48 43 36 33 31 30 26 21 21 22 20 21 21 22 22 28 30 32 33 33 28 26 24 26 29 29 32 28 32 24 20 21 21 17 30 28 24 26 27 25 26
43 43 46 45 46 40 32 30 30 27 19 24 21 19 20 22 22 23 23 23 30 30 32 34 33 30 30 25 24 26 30 32 32 32 24 23 22 31 32 33 30 29 30 26 27
37 36 46 44 34 33 32 27 30 21 22 21 26 25 25 26 25 23 23 29 31 32 30 35 34 31 30 29 30 29 34 35 32 29 29 24 21 29 32 35 36 34 34 34 32
34 38 45 41 32 28 28 25 24 21 21 20 25 25 27 25 25 26 26 24 33 35 37 39 33 25 22 21 31 29 30 34 36 36 31 28 23 34 37 38 38 36 35 34 34
36 37 36 37 35 32 30 28 24 24 21 23 26 24 24 24 23 23 23 24 31 34 42 36 28 26 22 21 32 30 30 30 33 31 29 31 31 32 32 34 39 39 37 35 36
41 36 37 31 30 32 33 30 25 23 21 22 23 19 21 23 23 23 24 23 24 37 34 33 28 29 28 28 25 22 26 28 28 29 28 25 25 26 33 34 34 37 39 40 39
38 34 31 28 32 31 33 31 24 19 21 20 23 22 23 24 23 23 25 26 26 28 30 35 28 33 29 26 24 23 24 24 25 27 26 28 26 36 35 35 35 36 36 37 39
38 38 33 34 31 33 31 29 25 25 23 19 21 24 23 26 28 28 28 29 30 28 27 27 28 27 24 26 25 21 29 32 32 31 33 31 34 37 37 36 35 34 34 33 35

GFSSW_sfc_dewp_069.txt.gz
Dewpoint
51 51 50 51 51 51 50 50 51 51 52 52 52 52 51 51 52 48 43 35 44 50 53 37 35 26 22 20 23 24 21 21 23 24 24 26 25 28 26 24 23 26 35 35 36
51 51 50 50 51 50 51 51 51 51 52 52 52 51 51 51 48 46 46 49 53 58 44 36 32 17 12 20 22 22 20 21 23 24 23 24 24 24 22 22 22 25 34 34 33
50 51 51 51 52 51 51 52 51 51 52 51 51 51 51 52 40 33 52 54 54 54 43 32 28 32 23 19 20 19 19 20 20 22 23 22 21 22 21 19 21 21 30 33 32
50 50 50 51 51 52 51 52 51 51 51 52 50 50 52 49 4 32 62 57 55 54 34 32 35 33 22 16 15 16 16 17 17 17 19 21 21 21 22 22 23 26 33 33 32
51 50 50 50 51 51 51 51 51 51 50 50 50 50 48 41 36 34 60 55 53 40 34 34 35 29 27 18 16 12 13 13 13 15 17 18 18 19 19 22 25 25 31 33 32
51 51 50 50 51 51 51 51 50 50 50 50 50 50 46 26 21 36 51 52 41 35 33 35 32 28 22 19 16 17 16 16 15 14 15 15 16 18 18 23 24 25 34 34 32
51 51 51 50 50 51 51 51 50 51 51 51 50 50 46 28 35 45 44 40 35 34 30 33 32 24 20 16 19 17 14 15 15 15 14 15 14 15 19 23 25 28 34 31 35
52 51 51 51 51 51 52 52 53 53 52 52 51 48 34 34 39 35 39 36 35 32 30 30 25 19 18 19 16 14 15 14 14 16 15 14 11 14 20 21 23 23 23 24 28
52 52 50 51 51 52 52 52 53 54 54 52 47 44 35 44 43 42 32 32 34 32 31 30 24 19 17 15 13 14 11 12 13 14 14 13 13 16 18 19 21 22 25 25 25
52 52 51 50 51 52 52 53 52 52 53 50 47 40 38 36 37 29 36 33 32 28 21 23 20 17 16 15 11 10 11 12 13 14 16 13 14 16 18 18 17 19 22 25 26
52 52 51 50 51 51 49 45 40 40 46 34 34 35 32 35 35 19 25 28 26 23 20 20 14 13 15 17 16 15 15 14 15 16 16 15 16 16 17 18 16 17 21 21 23
52 52 51 51 50 51 48 38 40 35 36 41 39 35 34 37 36 37 25 20 23 20 21 17 15 16 18 18 18 18 16 16 17 17 17 17 16 16 16 17 18 19 20 21 23
52 52 51 51 50 48 42 41 43 41 35 32 38 37 36 37 36 37 26 25 21 20 19 17 17 19 19 18 17 17 16 17 16 17 17 16 14 15 19 20 19 20 24 22 24
52 51 51 50 44 42 38 42 41 39 32 33 30 33 32 32 25 34 28 24 23 19 19 18 19 17 16 17 17 14 16 17 17 16 12 17 11 15 16 17 18 17 17 19 21
51 51 50 49 38 36 37 41 39 38 27 35 28 28 25 24 24 25 27 23 20 19 19 17 17 18 16 17 26 19 22 20 18 16 15 16 12 15 18 15 16 17 18 18 20
51 50 48 46 46 43 44 39 38 34 28 32 20 18 20 21 23 23 25 25 23 20 19 18 21 21 20 29 30 30 24 19 19 16 13 14 14 13 15 15 16 18 20 21 21
50 49 47 42 26 39 39 38 30 29 33 28 25 21 18 19 21 23 21 20 19 16 21 28 28 32 33 32 33 34 29 21 17 14 14 17 17 16 20 21 24 25 29 28 27
49 48 46 44 42 41 40 34 27 27 28 28 23 22 21 23 23 25 24 23 28 25 29 28 26 31 34 34 32 34 34 31 24 17 17 21 19 17 26 29 30 30 32 29 31
47 38 41 45 45 41 35 29 25 32 30 25 22 22 22 20 22 23 23 27 31 31 27 32 32 36 35 34 35 34 33 37 34 34 29 26 23 24 23 26 28 31 33 34 32
42 38 40 45 42 40 34 28 32 30 28 23 20 22 19 20 22 23 24 30 31 32 31 30 27 32 32 31 35 35 37 29 33 25 24 23 22 21 23 26 29 31 33 34 36
35 31 36 45 43 37 30 30 31 28 26 24 22 22 24 24 24 23 23 27 31 32 33 33 29 26 30 28 28 32 34 35 34 32 25 22 21 26 32 35 33 32 35 35 36
37 33 34 38 36 32 29 29 33 27 28 25 25 27 26 26 23 23 25 27 32 33 31 33 31 27 27 28 31 31 33 34 26 28 32 30 25 33 36 35 35 34 32 35 36
38 34 38 37 30 29 31 31 32 30 29 23 23 25 26 24 20 27 26 30 34 33 34 35 26 21 21 21 26 28 31 33 32 30 27 25 23 34 39 35 35 37 37 34 35
35 32 34 35 32 30 32 31 33 31 25 21 21 24 23 23 25 22 24 28 29 33 38 34 28 23 21 22 26 26 28 32 31 27 26 28 27 28 33 36 38 37 37 35 39
39 35 31 27 29 31 39 37 34 32 28 24 21 24 24 21 21 21 26 27 28 39 38 31 26 27 27 28 29 28 28 27 27 28 26 23 25 29 36 36 36 35 34 32 33
34 34 34 31 29 32 39 38 38 36 32 27 21 21 22 20 22 20 24 24 23 28 29 31 25 30 29 29 28 26 27 27 31 27 28 28 32 37 36 34 33 33 33 32 32
37 38 37 36 34 35 36 39 39 39 35 30 26 25 25 24 26 27 27 26 25 26 24 24 27 24 22 27 28 24 34 35 34 35 36 31 34 35 34 33 33 33 34 33 32

GFSSW_sfc_dewp_072.txt.gz
Dewpoint
51 51 51 51 51 51 51 51 52 51 51 51 52 52 51 51 51 47 42 34 45 51 51 34 34 28 21 19 22 25 21 21 23 24 25 27 25 28 28 24 25 24 27 34 39
51 50 51 51 51 52 51 51 51 52 52 51 51 51 51 50 48 45 47 48 52 53 38 27 31 16 14 20 22 22 21 21 23 25 24 25 24 23 23 23 23 23 25 34 41
51 50 50 51 51 51 52 52 51 52 52 51 51 50 50 50 40 18 50 53 52 53 41 34 28 26 12 20 21 21 20 21 21 23 23 23 22 23 22 21 22 22 23 33 35
52 51 50 51 51 51 52 52 52 51 51 51 50 49 51 48 19 25 61 58 53 51 37 27 31 32 25 20 19 18 18 19 20 20 22 19 21 21 23 22 24 24 27 30 33
52 51 51 50 51 51 51 51 51 50 50 49 49 49 47 36 29 29 57 54 52 39 28 35 33 28 27 19 16 13 15 15 15 14 15 17 17 18 17 21 23 24 25 31 33
52 52 51 51 51 50 51 50 50 50 50 50 50 49 45 16 14 40 52 49 44 34 33 34 33 30 24 20 17 18 15 16 16 15 15 14 15 18 17 21 21 23 25 27 33
53 52 51 51 51 51 52 51 53 51 51 52 50 49 44 18 35 35 49 43 38 33 29 34 33 26 19 17 19 18 15 15 15 16 14 16 14 15 17 18 18 19 20 34 36
54 53 52 51 51 52 52 53 52 52 51 52 50 47 33 32 39 39 41 37 35 34 32 31 28 22 18 19 16 14 15 12 14 15 14 14 12 16 17 19 22 24 24 26 31
54 53 53 52 51 51 52 52 53 53 53 51 47 42 36 45 40 42 33 30 32 33 32 30 28 19 17 15 13 12 10 14 12 15 13 13 12 16 18 18 18 20 21 22 24
53 53 53 53 51 51 51 52 53 53 52 50 48 39 37 36 38 37 36 33 32 30 22 23 20 17 16 15 11 8 11 12 13 14 14 14 14 17 18 18 19 19 21 22 22
53 53 53 53 52 51 49 46 39 38 46 36 34 34 32 34 37 24 35 33 30 25 20 20 14 14 14 16 16 16 15 15 16 17 15 16 16 17 18 18 17 17 19 21 23
53 53 53 52 52 51 48 37 37 38 36 41 41 37 35 35 33 35 26 20 24 20 20 18 17 17 17 17 17 17 17 16 18 19 17 18 17 19 17 16 16 18 21 22 23
52 52 52 52 50 48 43 39 42 40 36 34 38 37 36 35 33 34 22 21 21 20 19 17 17 19 18 18 18 17 17 17 17 19 18 16 14 15 17 19 20 20 22 23 24
51 51 52 50 43 41 37 42 41 39 32 33 31 35 36 36 32 37 27 24 24 19 19 18 19 19 18 16 17 15 18 18 18 17 15 16 12 14 17 16 17 17 19 19 21
51 51 51 50 41 34 37 41 39 38 25 34 30 31 32 28 25 26 28 23 22 20 19 17 18 17 17 17 28 25 27 27 25 22 15 16 13 16 18 16 17 19 19 19 21
51 51 50 46 45 43 42 39 39 33 26 31 20 21 24 23 22 24 25 25 25 20 20 18 21 19 17 27 30 32 30 28 19 16 15 17 14 14 15 16 18 19 20 26 30
50 50 49 44 34 39 38 37 30 30 29 25 23 22 19 19 20 23 23 21 20 17 17 24 24 31 32 30 33 31 29 24 22 16 18 17 15 15 18 19 18 21 26 32 32
49 48 46 44 43 39 39 34 27 25 28 28 25 22 20 22 22 24 24 23 29 23 26 24 19 30 34 30 28 31 30 25 18 19 19 27 20 17 25 27 27 29 33 35 36
48 40 38 43 45 42 33 30 23 32 28 24 24 22 22 20 20 24 23 25 30 30 25 30 30 34 34 35 33 32 30 33 30 31 28 27 27 27 26 32 33 32 34 36 37
43 36 37 43 43 38 30 25 31 32 28 24 21 22 19 21 22 23 23 29 30 32 29 28 25 30 32 31 35 34 35 30 33 24 19 24 24 23 28 33 34 33 34 35 36
37 33 35 37 42 37 28 30 31 30 30 25 23 22 23 24 23 23 22 26 31 33 32 32 27 25 30 27 26 31 32 33 35 32 25 23 24 32 36 36 36 35 35 35 36
39 30 35 40 37 31 27 30 34 34 33 30 27 26 26 26 22 23 24 26 32 33 30 33 30 26 24 27 29 31 30 31 23 18 26 22 22 33 38 37 35 36 34 33 36
36 36 37 37 32 30 31 32 35 34 34 26 24 24 23 24 21 27 26 31 34 33 34 35 26 21 19 17 25 28 32 32 30 28 25 20 21 36 36 37 38 35 33 33 33
37 34 32 33 32 31 35 35 34 36 37 31 23 24 23 23 25 22 23 27 27 32 37 34 26 22 18 17 24 25 27 30 29 20 25 25 24 26 29 36 36 35 34 34 33
38 34 31 28 29 32 33 37 34 37 35 35 28 23 23 19 20 21 24 25 27 39 36 30 26 26 26 26 26 27 27 28 29 29 26 25 25 26 35 36 34 35 34 33 33
34 34 35 34 34 30 37 35 35 38 38 36 35 29 27 23 21 19 23 24 23 30 33 31 25 28 28 28 28 27 27 27 28 34 34 33 32 34 37 35 34 33 32 32 32
36 37 37 36 36 35 35 37 37 37 39 39 38 33 30 29 28 25 24 25 25 25 25 26 27 24 21 26 27 24 30 34 34 34 33 31 32 35 32 32 32 32 33 33 34

GFSSW_sfc_dewp_075.txt.gz
Dewpoint
52 51 51 52 52 52 52 52 52 52 52 52 53 53 52 51 51 47 39 32 44 50 48 31 33 28 22 21 23 25 26 22 23 25 25 27 25 27 26 25 25 25 26 27 38
52 52 51 51 52 52 52 52 52 51 52 52 52 52 51 50 46 43 43 48 49 53 34 12 29 21 19 22 22 23 25 24 25 26 25 25 24 24 23 23 24 25 27 27 45
52 52 52 51 51 52 52 52 52 52 52 52 51 50 50 49 39 19 52 53 52 52 34 32 23 15 14 21 22 22 21 23 22 24 24 23 22 22 21 21 21 23 24 25 27
53 53 52 52 50 50 51 51 51 51 50 50 50 49 50 47 21 12 60 57 53 49 32 25 29 24 19 16 20 19 20 21 20 21 21 20 21 20 21 22 23 24 25 26 27
53 53 52 51 51 50 51 51 50 50 50 49 49 49 47 38 24 33 57 54 49 46 30 26 28 29 20 18 18 17 17 17 18 17 16 16 15 15 14 16 19 21 24 24 25
54 53 52 52 52 51 51 51 51 50 49 50 50 48 47 19 18 41 49 50 42 33 27 35 32 29 23 20 19 18 16 16 17 17 17 16 16 17 17 20 21 23 24 23 26
54 54 53 53 52 52 52 52 51 51 51 51 50 47 44 18 33 41 46 41 37 31 27 32 33 25 21 19 19 17 15 16 17 17 17 18 16 16 19 21 21 22 23 25 27
54 54 53 53 53 52 52 52 51 52 52 51 50 47 31 30 35 38 47 37 36 32 30 32 30 26 20 19 16 15 16 13 15 16 14 16 13 16 19 20 20 22 24 26 30
54 54 54 53 53 52 52 51 52 52 52 51 48 44 30 44 39 39 39 31 32 32 33 30 28 22 19 17 15 14 8 11 14 15 16 15 13 17 21 22 24 25 24 24 26
53 53 53 53 53 52 52 51 54 53 51 49 47 40 36 35 36 39 36 32 30 29 25 25 23 20 18 16 7 10 12 14 15 16 16 16 18 19 22 22 24 24 24 25 26
53 53 53 53 53 52 49 45 42 42 48 39 33 31 32 34 36 29 36 31 28 26 23 21 19 19 19 20 17 16 16 16 18 19 18 19 20 21 22 24 24 25 26 27 28
53 53 52 52 52 51 48 37 37 39 35 40 40 38 37 35 32 33 33 25 26 21 21 20 20 21 18 17 17 17 17 17 19 20 20 21 21 22 23 23 23 24 25 27 30
52 52 52 52 51 48 43 39 41 41 36 34 38 38 37 36 33 30 24 22 21 21 21 20 17 19 18 18 18 18 17 18 19 22 23 21 19 20 20 23 23 23 26 28 30
51 51 51 51 45 39 38 41 40 41 31 30 32 34 35 34 29 33 25 20 21 20 21 20 19 18 19 17 18 17 19 21 24 25 18 24 17 20 21 21 21 22 25 26 28
51 51 51 50 46 35 38 39 40 41 23 33 30 34 35 30 24 31 30 24 22 22 21 18 18 17 17 17 21 19 27 28 28 25 24 20 19 19 20 19 21 23 24 25 28
50 51 50 47 46 42 42 40 42 31 22 28 25 25 29 26 22 24 26 26 25 23 22 20 20 18 18 25 28 31 30 28 26 23 19 20 19 17 18 21 22 23 23 25 26
50 50 49 46 37 39 40 39 29 24 29 25 22 22 20 18 21 21 22 25 22 21 21 21 21 24 28 23 33 31 27 18 15 15 14 21 22 20 24 24 24 25 24 28 37
49 48 46 44 43 43 42 35 23 23 27 26 22 23 22 21 22 23 23 21 27 21 21 21 19 28 33 27 24 27 27 22 17 10 11 19 19 15 27 33 35 34 33 38 39
48 42 39 43 46 44 37 30 23 30 27 25 21 22 28 26 21 23 23 23 29 28 23 28 27 33 33 34 31 31 26 34 27 26 24 19 23 24 33 35 35 34 36 38 39
43 39 38 42 45 42 32 26 29 31 28 26 20 22 23 23 28 25 23 27 28 32 31 29 23 28 31 31 35 32 34 29 33 23 15 13 18 21 31 32 34 34 35 37 38
42 37 37 41 44 38 30 30 30 33 35 29 25 24 22 22 22 22 21 25 30 32 32 32 28 23 29 24 19 30 32 34 34 32 23 16 13 33 33 32 33 32 37 37 36
41 32 40 41 39 32 29 31 35 33 36 34 32 25 25 25 25 26 24 25 32 33 28 34 33 26 22 25 28 29 27 31 29 26 29 29 20 24 28 36 35 35 37 36 37
40 38 40 41 36 32 35 34 33 34 34 33 34 24 23 23 23 24 25 29 33 32 33 36 31 21 17 23 30 29 31 32 33 33 28 24 17 29 34 29 29 34 35 35 36
39 34 35 34 34 33 32 34 35 36 36 35 32 25 23 22 25 26 27 27 25 28 36 38 29 23 16 16 26 26 25 28 30 29 24 23 22 25 28 29 31 35 37 35 34
38 35 34 31 33 35 32 34 33 34 37 37 37 32 30 23 23 21 25 24 25 38 37 35 28 28 26 26 26 26 23 24 25 26 26 24 24 28 34 35 36 37 36 34 33
36 35 37 35 36 34 35 34 34 37 37 36 37 37 35 32 28 27 26 26 24 32 37 35 33 30 24 23 23 25 25 25 26 26 27 28 30 34 36 34 34 35 34 33 32
38 39 38 35 34 33 34 35 35 35 38 38 38 38 37 35 36 35 33 31 28 29 32 30 30 27 20 24 25 22 28 29 32 34 32 30 29 34 33 32 33 32 32 32 32

GFSSW_sfc_dewp_078.txt.gz
Dewpoint
53 53 52 52 51 52 52 52 52 52 52 53 53 53 52 52 51 44 35 36 40 52 47 33 30 24 23 23 25 24 21 15 15 18 21 25 22 21 25 24 24 25 27 29 33
54 53 53 52 51 51 52 52 52 52 52 53 53 52 51 50 44 35 44 45 52 52 31 24 23 22 19 21 22 22 18 15 18 22 23 24 23 20 22 23 23 24 25 27 29
53 54 53 52 51 51 51 51 52 52 52 52 51 51 50 49 38 26 51 52 51 51 28 19 24 19 17 19 20 19 17 19 23 24 24 22 20 20 19 19 21 21 21 24 27
54 54 53 53 52 51 51 52 51 51 51 50 50 50 50 45 19 28 61 58 55 35 26 26 23 19 17 18 20 18 20 19 20 19 20 19 18 18 18 19 18 19 22 23 25
54 54 54 53 53 52 52 52 52 51 50 50 50 49 46 33 17 35 59 55 47 39 26 22 21 20 18 17 19 19 18 18 18 18 18 18 17 16 16 16 16 16 19 20 22
55 54 53 53 53 53 53 52 52 51 51 50 51 49 43 24 17 37 40 35 31 30 28 21 19 22 19 18 17 18 17 16 17 17 17 16 16 16 16 18 18 20 21 21 21
54 54 53 53 53 53 53 53 53 52 52 52 51 45 40 25 23 40 37 35 34 25 21 31 28 22 20 19 19 18 17 17 17 17 17 18 17 17 18 19 21 21 21 21 22
54 54 54 53 53 53 53 53 52 51 51 52 52 44 34 26 28 33 38 34 32 27 27 29 30 25 21 20 17 15 16 10 13 15 14 16 10 15 18 19 19 20 20 21 23
53 53 54 53 53 53 53 52 53 52 52 52 47 44 31 43 36 30 39 30 27 26 29 28 29 24 20 16 13 14 5 8 7 10 10 12 10 13 18 20 21 22 23 22 23
52 53 53 53 53 53 52 51 53 53 51 47 45 43 35 31 34 37 34 32 29 29 30 29 26 21 16 13 6 7 7 8 11 11 15 13 14 16 17 18 20 21 23 23 23
52 52 52 53 53 52 50 46 47 47 47 35 31 32 27 32 34 35 34 31 29 28 23 24 19 17 16 16 14 14 13 13 15 16 17 19 18 18 20 21 20 21 22 25 25
51 52 52 52 52 52 46 35 36 39 34 36 38 35 35 34 31 29 34 25 26 22 23 22 17 18 18 18 17 15 15 16 17 17 19 21 20 21 22 23 22 23 23 23 24
50 50 52 52 51 49 41 35 40 40 34 31 35 35 35 35 30 29 29 25 24 22 21 20 17 18 17 17 16 17 17 18 17 19 21 22 20 21 20 22 23 23 24 24 25
49 50 51 50 47 41 36 39 40 40 29 30 31 32 34 31 28 29 26 22 21 19 20 20 18 17 17 16 16 17 16 18 20 22 18 23 18 23 22 21 22 23 25 25 25
49 50 51 50 46 38 38 38 39 42 23 31 29 34 31 28 26 30 30 23 21 21 22 19 18 18 19 18 19 19 22 24 24 24 24 21 17 19 19 18 20 24 24 26 27
49 50 50 47 46 41 38 39 42 31 21 26 26 26 28 28 22 26 29 28 25 23 23 21 21 19 19 20 22 25 25 25 25 22 19 18 16 16 15 19 23 24 25 27 26
49 50 48 45 35 37 39 40 30 21 28 25 24 23 22 20 21 23 24 26 23 22 22 22 21 22 22 22 24 29 26 19 15 14 13 14 12 16 20 25 29 31 32 32 36
49 49 47 44 44 42 44 34 27 21 25 27 25 25 26 26 24 24 21 21 24 22 21 22 21 23 28 26 24 25 27 22 21 16 12 14 11 13 23 32 34 34 36 37 38
48 45 42 42 46 45 37 29 27 28 28 25 24 25 28 33 31 30 28 25 24 27 23 24 25 30 30 29 27 25 24 28 25 21 19 14 16 18 22 33 33 32 35 36 37
44 43 38 42 48 45 34 28 28 29 27 26 23 22 25 27 28 30 30 28 26 28 30 26 25 25 28 30 30 24 27 25 28 22 13 7 11 9 23 26 27 30 31 32 34
45 40 38 42 46 41 34 31 30 30 33 30 27 25 25 24 25 26 26 25 27 28 29 28 26 22 25 22 20 24 24 27 29 32 24 16 9 21 22 25 25 29 29 30 34
43 35 39 42 40 38 33 32 35 32 34 32 33 30 26 28 25 24 26 28 29 29 28 31 28 25 21 22 25 22 22 23 29 26 31 30 22 23 27 28 31 31 27 30 35
39 38 40 41 36 35 36 33 34 34 34 34 33 34 30 25 28 32 29 28 28 28 29 33 27 24 17 22 27 23 23 25 27 30 30 27 20 22 23 24 28 33 32 32 36
38 35 36 37 37 36 35 33 34 35 34 35 35 32 29 28 26 26 26 28 27 25 37 32 27 26 17 17 23 23 22 23 27 32 26 22 21 22 25 27 31 34 35 35 36
37 36 37 33 34 36 35 34 33 32 38 38 37 36 33 29 26 25 26 28 25 29 32 32 27 25 21 21 21 21 20 20 20 22 24 22 21 23 27 30 33 34 33 33 33
36 35 37 36 34 34 35 32 35 36 38 37 37 35 37 37 32 30 29 30 30 27 32 36 30 29 26 21 19 18 17 20 22 23 23 23 24 27 30 32 31 32 32 31 31
41 41 38 35 32 31 32 34 34 33 35 37 38 37 36 36 38 39 39 38 35 34 31 34 29 26 24 21 24 22 25 27 27 28 29 28 29 30 29 31 32 31 31 32 33

GFSSW_sfc_dewp_084.txt.gz
Dewpoint
55 55 55 55 54 54 53 53 53 53 54 54 54 54 54 53 53 46 41 41 43 55 49 25 29 23 17 20 19 17 17 20 21 22 25 28 31 33 31 28 30 27 26 28 31
55 55 55 55 55 54 54 53 53 53 53 53 53 53 53 52 46 39 44 57 57 50 20 22 27 20 13 17 18 16 17 14 14 18 20 24 25 26 27 27 30 32 32 28 28
54 55 55 55 54 55 55 54 53 53 53 53 53 52 52 50 43 33 62 59 56 48 19 22 25 18 16 16 16 15 16 15 12 11 12 17 19 22 23 24 28 33 33 30 32
53 54 54 55 55 54 54 54 54 53 53 53 53 52 53 47 29 40 57 58 54 34 22 26 23 19 15 13 14 13 16 17 16 12 16 18 21 21 20 23 25 24 25 25 25
53 53 53 54 54 55 54 54 54 54 53 53 53 53 49 40 35 47 62 58 41 29 20 25 18 19 14 12 13 13 15 15 15 14 17 19 19 19 17 17 17 17 21 22 25
53 53 52 53 53 54 54 54 54 53 53 53 53 53 47 36 22 44 37 39 33 29 22 21 21 19 16 14 13 15 14 15 15 15 17 16 15 15 16 17 18 20 21 20 22
52 52 53 53 53 54 54 54 54 54 53 53 52 50 44 37 24 24 33 34 32 25 25 23 20 19 19 19 18 15 15 16 15 15 15 15 14 14 16 18 20 19 21 22 25
52 52 52 52 52 52 54 54 54 53 52 52 53 48 42 35 30 29 31 27 27 27 23 19 23 26 21 20 17 15 16 14 14 15 14 15 14 16 16 19 20 21 20 22 26
52 52 52 52 52 52 53 53 53 54 53 52 51 47 38 39 25 20 24 28 27 24 23 25 25 24 21 17 17 16 11 12 11 12 14 14 14 14 17 20 21 25 27 24 27
52 51 51 51 51 52 52 52 52 53 52 49 47 43 41 33 27 20 24 28 26 23 23 25 23 21 20 18 8 10 10 9 9 12 13 10 12 12 12 13 21 23 25 26 28
53 52 51 51 51 51 50 46 50 49 48 40 38 34 27 31 32 29 26 30 27 23 22 24 20 18 17 16 12 10 10 11 10 8 9 12 13 14 16 17 18 22 25 28 30
53 53 52 50 51 51 50 43 35 33 32 40 41 33 31 28 29 30 27 28 27 22 23 23 21 20 18 16 16 15 14 14 13 11 14 16 17 19 19 21 23 27 28 29 31
53 52 52 51 51 50 46 42 38 35 34 32 32 35 30 27 27 29 28 28 26 25 24 22 20 20 17 16 16 16 16 16 13 15 18 19 18 20 19 23 25 25 28 27 32
53 52 51 51 49 46 41 37 33 37 32 31 26 28 30 29 27 28 29 27 23 22 21 21 21 19 17 15 14 16 15 14 15 16 14 18 16 22 22 22 23 24 28 28 30
53 52 51 50 47 40 35 36 36 40 35 31 27 29 28 26 26 26 28 26 25 21 19 18 18 16 16 15 16 15 17 19 20 21 22 20 19 21 23 21 22 29 30 32 33
52 52 50 48 48 43 36 37 39 36 33 28 26 25 24 24 24 25 26 26 23 20 21 20 21 20 17 17 19 19 20 21 22 22 19 21 20 19 20 20 23 28 30 31 32
52 50 48 45 42 35 37 39 37 32 26 27 25 23 22 23 22 23 25 25 21 22 22 21 20 20 21 21 21 22 23 20 21 23 22 23 25 25 21 22 24 27 27 29 32
50 48 48 45 42 41 42 38 35 29 25 27 25 25 24 25 25 24 25 24 27 25 25 26 25 26 29 30 23 23 26 25 24 22 20 22 20 19 20 23 28 28 30 31 32
48 46 48 45 42 44 41 36 34 30 26 26 25 25 21 29 28 29 28 28 28 28 29 29 26 34 28 27 25 24 24 27 27 26 23 21 20 20 19 28 31 31 32 30 32
44 45 45 42 43 46 40 36 32 29 28 29 27 26 23 30 33 30 30 30 30 31 32 32 30 30 33 32 28 26 25 25 23 25 21 19 18 14 21 22 22 24 24 26 28
46 44 41 44 44 41 37 35 31 29 29 30 30 29 28 27 29 29 30 29 29 29 32 33 32 30 30 29 25 24 25 25 28 30 25 20 19 24 25 25 25 23 24 26 28
45 39 42 42 39 39 34 33 35 27 29 30 31 32 31 31 30 28 27 32 34 28 28 33 36 31 28 28 27 27 24 26 30 28 30 32 25 27 27 25 27 24 27 28 33
41 36 41 40 32 33 38 30 28 29 30 30 31 32 34 32 31 31 28 31 32 32 31 37 35 32 27 26 26 25 23 22 23 28 25 25 21 23 25 24 27 30 30 32 38
42 33 36 35 34 35 33 31 29 33 30 33 33 33 34 33 33 31 30 31 33 29 40 36 32 31 26 27 33 30 26 22 23 28 21 19 19 21 23 28 30 32 33 32 34
43 36 39 32 35 37 35 33 30 30 34 33 34 37 35 33 33 33 37 38 37 38 32 34 30 29 28 26 25 24 21 18 17 17 18 16 16 18 28 30 31 33 32 31 32
40 35 36 32 34 34 35 32 32 33 33 32 34 35 35 35 34 32 34 36 36 35 32 34 32 33 30 27 23 19 18 16 15 15 15 16 21 25 31 31 32 34 33 34 34
44 40 38 36 33 32 32 32 32 32 32 33 35 35 33 34 37 36 37 37 38 39 37 38 37 35 30 28 24 22 23 22 27 27 25 22 25 31 31 31 34 35 35 35 36

GFSSW_sfc_dewp_087.txt.gz
Dewpoint
55 55 55 55 55 55 55 54 54 54 53 53 53 53 53 54 53 48 44 45 46 56 53 36 30 23 21 14 18 21 18 17 19 24 25 25 31 34 36 35 33 34 31 34 34
54 54 55 55 56 55 55 55 54 55 54 54 54 53 53 53 49 44 47 56 58 58 34 24 16 24 16 14 17 18 16 15 17 19 21 21 24 31 34 35 33 33 35 37 34
52 53 54 54 55 56 55 55 55 54 55 54 54 53 53 52 44 41 62 56 61 57 25 14 18 24 17 13 14 17 16 16 17 17 16 13 18 30 32 34 35 34 33 32 34
52 52 52 53 53 54 55 55 55 55 53 54 53 53 54 50 34 39 62 61 60 40 23 17 20 25 23 14 15 14 16 15 15 17 16 16 23 22 26 33 29 26 28 25 25
51 51 51 52 53 53 54 54 54 54 53 53 53 53 50 44 42 48 60 58 46 34 26 21 26 24 19 15 14 13 14 14 15 16 16 19 20 21 21 23 22 20 21 21 24
53 52 51 51 52 53 54 54 55 54 53 52 52 52 49 41 39 53 50 48 32 26 23 19 23 22 20 15 13 14 13 13 15 16 16 18 18 19 20 21 19 19 21 22 22
53 53 52 51 51 52 53 53 53 54 53 52 52 50 46 41 38 45 36 36 37 30 24 22 23 21 22 22 19 19 16 14 14 16 16 19 16 16 18 19 18 19 20 21 21
53 53 53 52 51 51 52 53 53 53 53 53 51 50 44 43 42 34 36 32 33 28 23 24 23 25 25 24 21 19 17 14 15 16 16 16 13 17 19 18 20 20 22 24 26
54 54 53 53 52 51 52 52 52 53 54 52 50 49 42 44 38 30 30 30 28 28 27 20 26 26 24 21 19 18 14 14 14 16 14 15 15 17 19 21 21 21 23 23 24
54 54 54 54 53 52 51 52 52 53 52 50 48 46 45 37 32 31 22 23 28 27 23 24 24 23 22 20 16 13 14 13 12 12 14 14 15 17 20 20 22 23 24 25 26
55 54 53 53 53 51 50 47 49 48 49 44 41 38 34 35 30 24 24 27 30 27 22 24 22 21 20 20 20 19 15 12 14 15 14 14 14 16 18 21 22 24 24 25 27
55 54 54 53 52 51 49 45 42 39 34 46 43 40 38 34 29 30 28 28 30 25 22 22 22 23 21 19 18 17 17 16 18 17 15 16 16 20 20 21 23 23 25 26 27
54 54 53 53 51 50 47 44 43 41 33 33 40 40 36 31 27 29 27 27 28 26 25 22 23 23 22 18 17 16 17 17 17 18 19 19 19 19 21 23 23 24 26 28 28
54 53 53 52 48 46 46 45 45 42 33 32 28 34 35 30 27 29 28 27 26 24 25 23 23 22 21 18 16 14 17 17 17 20 16 21 18 22 24 25 23 20 31 32 34
53 53 53 51 45 44 40 35 37 41 34 30 27 28 29 28 28 27 30 28 26 23 23 20 20 20 18 16 17 17 21 21 22 20 22 22 21 21 23 24 29 31 31 34 37
53 53 52 47 48 47 46 40 40 36 35 29 26 24 26 26 26 26 28 28 26 25 22 20 22 21 21 21 20 22 22 22 23 22 19 20 22 21 23 24 30 30 31 33 35
52 52 50 45 44 43 43 40 37 36 35 28 25 24 24 22 23 25 24 25 23 20 21 24 23 28 28 21 26 27 23 20 20 21 22 31 33 30 28 28 29 29 31 31 33
52 50 49 45 45 44 45 41 35 35 28 27 25 24 24 23 28 26 25 25 26 26 24 25 25 28 29 31 30 29 27 32 29 24 25 27 26 27 29 30 31 32 32 32 33
50 46 47 50 46 46 44 38 36 34 27 26 25 23 25 31 34 30 29 31 29 29 28 31 30 32 31 32 32 27 24 28 26 27 26 24 23 26 31 32 31 31 32 31 30
46 45 46 48 48 46 42 39 38 35 28 28 27 28 27 30 34 32 32 33 32 30 33 32 30 33 31 34 34 30 27 26 28 23 21 21 22 21 25 25 26 24 23 24 25
46 46 46 45 48 44 38 39 39 29 29 29 30 30 30 29 30 30 33 33 32 30 32 32 34 32 31 31 30 26 27 28 32 32 25 21 22 28 28 27 25 24 24 31 34
44 43 45 47 42 42 42 44 42 29 31 31 32 32 32 33 33 31 31 33 37 35 30 35 34 32 30 32 30 29 30 29 34 32 32 29 25 28 30 26 25 29 31 33 33
41 43 47 44 35 36 40 40 39 28 32 31 32 34 33 33 32 32 34 35 36 34 36 37 33 30 30 31 35 30 30 30 32 31 25 22 22 24 24 28 32 32 31 31 32
42 40 43 43 40 37 36 34 31 33 32 33 34 35 36 35 35 33 34 37 38 34 43 37 31 31 29 31 37 35 33 31 27 28 25 23 20 21 30 32 32 32 33 33 33
44 41 41 34 35 37 37 34 30 33 34 34 36 36 35 32 32 34 37 36 38 42 36 31 29 30 29 28 28 27 27 25 23 22 21 18 17 29 32 31 32 33 34 34 34
43 40 39 37 37 37 37 34 33 33 33 33 33 34 35 33 35 34 34 34 36 39 36 38 30 31 31 31 28 26 25 23 21 19 16 21 26 32 32 33 33 34 34 34 35
45 46 41 39 36 34 35 34 33 35 33 34 34 33 33 34 36 36 37 37 37 37 39 37 34 34 30 30 28 25 27 27 28 32 30 29 32 32 32 32 33 34 34 34 34

GFSSW_sfc_dewp_093.txt.gz
Dewpoint
52 52 52 52 53 53 54 55 55 54 54 54 53 53 53 53 52 49 45 42 49 53 55 35 33 25 19 16 18 21 19 17 18 20 21 22 22 27 27 22 22 37 33 36 61
52 52 52 52 52 52 53 53 54 55 54 53 54 53 53 54 49 47 49 51 55 55 38 31 16 22 24 18 14 15 15 15 19 20 19 20 20 21 20 19 20 39 39 40 45
52 52 52 52 52 52 52 52 53 54 54 53 53 53 52 52 44 34 52 53 56 57 35 31 20 17 22 15 13 16 13 15 16 20 20 19 19 18 17 17 18 32 37 40 31
54 54 54 54 53 53 52 52 52 53 54 53 52 52 52 50 19 35 62 58 57 55 36 20 15 17 23 23 16 12 16 15 13 18 22 20 20 18 19 22 21 29 39 35 43
55 55 55 55 54 54 54 53 53 52 53 52 52 52 49 43 42 40 63 58 53 45 27 16 16 18 23 22 19 13 14 13 14 16 17 18 16 16 16 18 22 37 38 39 40
55 55 55 55 55 55 55 54 53 52 51 52 52 51 48 41 39 42 56 53 47 33 28 20 17 23 24 21 19 20 19 18 16 14 15 15 15 17 18 19 26 36 36 38 39
56 56 56 54 54 54 54 54 54 52 51 52 52 49 47 39 45 48 50 45 38 33 28 26 21 22 23 21 22 20 17 17 16 15 14 15 14 17 19 21 22 28 22 38 36
56 55 54 54 54 54 53 53 52 51 51 52 54 47 42 45 47 45 42 39 36 33 26 26 22 22 21 23 23 20 20 17 16 17 15 15 13 17 20 19 20 21 20 21 23
55 54 53 53 54 53 54 53 52 52 53 54 48 47 40 49 46 45 41 39 36 34 33 28 27 24 25 22 20 20 16 15 15 16 17 15 14 18 19 18 19 20 21 21 21
54 53 53 53 53 53 53 52 51 52 50 49 49 44 43 37 41 43 42 40 34 33 32 28 24 21 22 21 17 16 15 17 16 17 17 15 15 16 18 18 19 20 21 22 22
53 53 53 52 52 52 52 46 47 46 48 40 39 40 38 40 40 36 33 33 33 29 25 24 19 19 20 21 22 21 20 19 20 20 19 16 16 17 18 18 18 20 21 22 23
53 52 52 52 52 52 51 43 42 41 39 46 43 42 40 39 38 31 25 20 26 24 26 23 20 21 22 23 22 22 20 19 20 20 18 17 16 19 18 19 18 20 21 22 25
54 53 53 52 52 49 45 44 44 44 37 36 44 42 41 40 39 38 22 26 28 27 26 21 20 22 22 21 22 22 21 20 17 20 21 19 17 20 22 24 25 25 24 26 25
54 53 52 52 47 45 44 46 47 45 33 33 38 40 41 39 33 36 25 27 29 26 27 26 26 23 24 24 24 22 23 20 19 20 16 22 15 20 22 24 31 33 33 36 39
54 53 53 51 47 44 42 46 45 40 29 39 38 39 38 32 31 31 28 28 26 26 26 25 24 24 21 20 25 21 24 21 23 20 19 19 17 19 23 24 31 34 36 38 39
53 52 52 48 48 47 47 46 40 35 31 36 29 33 33 34 31 29 27 29 29 26 27 24 26 24 22 27 26 29 24 23 24 21 16 22 19 20 27 27 31 33 35 36 36
52 52 51 49 43 45 44 41 34 33 37 33 26 27 28 28 30 28 26 25 23 22 22 23 23 26 29 30 31 28 24 20 17 19 18 31 29 27 32 30 30 31 33 34 34
51 50 49 48 48 47 44 39 32 35 36 35 29 26 25 25 24 27 27 25 26 24 22 22 21 30 33 32 30 30 27 26 19 22 24 31 28 30 32 31 31 31 33 34 35
50 45 44 46 47 45 42 36 34 38 37 30 30 26 27 33 28 27 25 25 26 25 22 28 29 34 33 34 33 30 27 30 29 30 26 27 31 26 30 31 32 34 34 34 34
47 43 44 47 47 45 40 37 39 41 39 32 28 31 29 29 35 34 32 34 32 31 30 30 27 33 34 33 34 31 32 29 29 23 22 23 25 23 26 29 31 31 32 33 33
43 41 43 47 46 41 36 37 40 41 41 33 32 31 31 31 32 36 35 35 36 34 33 33 30 30 32 31 31 32 29 32 33 31 25 22 23 27 29 31 31 31 32 32 33
40 33 45 46 39 39 38 40 41 40 40 38 34 32 31 33 32 30 32 37 38 37 31 34 32 30 30 32 35 32 31 32 29 31 29 26 27 31 31 31 31 32 33 33 34
40 39 44 44 36 37 38 39 42 38 38 34 36 35 35 32 29 34 36 38 39 34 33 33 30 27 26 29 34 32 33 33 34 36 34 29 28 32 32 32 33 33 33 34 34
40 38 40 40 38 35 34 34 33 36 34 37 37 37 35 33 34 34 36 37 38 40 42 37 33 28 25 26 33 32 31 32 34 31 28 29 26 31 33 33 33 33 34 34 34
39 39 39 35 35 35 34 34 32 33 35 36 35 35 34 32 31 35 35 35 36 41 38 31 30 29 29 30 30 31 31 30 31 35 29 29 25 31 32 32 32 33 33 34 34
40 41 42 40 40 37 36 36 36 33 33 33 34 34 33 32 33 33 34 34 34 35 37 37 29 31 28 30 31 30 30 31 30 29 32 30 30 33 33 33 32 33 33 34 36
44 46 42 38 37 36 34 34 34 34 34 35 35 32 31 34 36 36 36 35 35 33 34 36 34 32 28 32 32 26 28 30 32 33 31 28 31 33 32 32 33 33 34 36 37

GFSSW_sfc_dewp_096.txt.gz
Dewpoint
53 52 52 52 53 53 53 53 54 54 54 53 53 53 53 53 53 49 45 40 48 52 53 34 32 24 19 14 20 22 18 15 14 19 18 23 20 26 27 24 24 24 34 40 68
54 54 54 54 54 54 53 53 53 54 54 53 53 52 53 52 49 47 50 52 54 52 37 30 23 23 23 17 14 17 15 13 16 20 19 19 19 19 20 19 20 23 35 52 66
55 55 55 55 55 55 55 54 53 53 54 54 53 52 52 51 44 34 48 54 54 54 36 29 17 21 22 14 14 16 11 14 15 19 19 18 19 20 19 18 19 21 25 36 54
55 55 55 55 55 54 54 54 54 54 53 53 52 52 52 49 17 35 61 55 57 52 31 21 15 18 22 21 14 13 15 13 12 19 22 20 21 20 20 19 20 22 24 32 32
55 55 54 54 54 54 54 54 54 53 52 52 52 52 48 42 39 41 62 56 54 52 33 18 14 21 22 23 16 13 15 15 15 15 17 19 17 17 17 19 19 20 25 35 38
55 55 55 54 53 53 53 53 53 53 53 52 52 52 47 34 37 46 55 52 52 44 29 16 15 21 23 22 19 19 19 19 19 17 15 15 16 16 17 19 19 21 30 38 38
54 54 54 53 53 53 54 54 53 53 52 51 52 50 45 40 43 44 52 50 43 33 28 25 21 24 24 21 22 20 20 19 19 18 17 16 14 15 16 17 20 22 31 34 39
54 53 53 53 53 53 53 53 53 53 52 52 53 47 40 43 46 45 47 42 38 35 29 28 23 22 21 22 23 20 19 18 18 17 17 15 13 16 18 19 19 20 21 23 28
53 53 53 52 52 52 53 53 53 52 53 53 48 45 40 47 46 45 41 40 36 35 32 26 23 21 25 22 20 19 16 18 15 17 17 14 14 18 19 18 20 21 21 22 22
53 52 52 52 52 53 53 53 51 52 50 49 47 42 41 35 43 45 42 41 36 34 33 33 30 23 22 21 17 16 16 17 17 18 19 18 16 18 19 18 18 19 21 23 24
53 53 52 52 52 52 51 47 47 46 46 39 38 38 37 38 41 40 41 39 37 32 24 24 20 19 20 21 21 21 20 19 20 21 20 18 17 17 19 19 18 19 21 23 29
53 55 53 52 52 52 50 44 40 42 39 45 43 42 42 40 37 35 35 30 29 26 26 23 21 21 21 23 22 22 20 20 21 22 19 19 17 19 20 21 21 21 21 24 26
54 54 52 52 52 48 45 45 45 44 39 37 44 43 41 40 37 38 29 24 24 24 25 22 23 23 22 21 22 22 21 21 21 21 21 21 17 20 24 26 31 31 31 32 33
54 53 52 52 46 45 43 46 46 45 32 32 38 40 41 39 35 39 25 27 28 21 27 26 26 24 23 23 23 22 24 23 23 20 16 22 14 19 23 25 33 34 36 39 40
53 52 52 52 47 44 41 46 44 41 29 36 38 40 40 32 30 33 27 27 26 26 26 25 25 25 23 23 24 23 25 24 22 19 23 18 16 17 25 25 32 36 38 38 39
52 51 52 48 47 46 47 46 41 35 31 35 35 35 35 33 31 28 27 28 29 26 27 26 27 25 24 23 27 29 24 23 24 20 16 18 18 19 27 29 32 35 36 36 35
51 51 50 48 43 45 45 41 33 32 36 34 26 32 32 31 32 27 25 24 24 23 23 24 23 24 24 28 33 27 23 19 16 17 17 29 27 24 30 33 32 33 33 35 35
50 50 49 48 48 46 44 38 31 34 37 37 32 27 28 27 28 28 25 24 26 23 22 21 20 27 33 30 29 29 24 23 17 18 21 31 27 29 32 32 34 35 34 34 34
50 46 44 44 48 46 41 35 34 36 38 30 36 27 26 27 25 27 26 25 26 24 23 24 27 34 34 34 32 30 27 29 29 29 26 27 29 28 32 34 33 33 33 33 34
47 43 43 46 47 44 40 37 38 41 40 35 30 32 30 31 34 29 27 30 27 27 26 26 25 32 34 33 34 30 31 29 28 23 22 24 26 24 28 31 31 32 32 33 34
42 39 40 47 45 41 36 36 37 39 41 40 35 34 32 31 36 37 34 36 37 33 29 31 28 29 32 30 29 31 30 32 32 28 24 21 23 29 27 31 31 31 33 33 34
43 34 44 46 41 39 37 39 40 38 42 37 34 35 36 35 32 31 34 36 39 37 31 34 31 29 29 32 34 32 30 33 29 28 26 24 25 31 31 31 32 33 34 34 35
40 38 42 44 37 37 38 38 40 41 39 36 35 36 36 33 29 33 36 37 38 36 34 37 30 28 27 28 32 31 31 33 35 37 33 26 28 32 33 33 34 33 33 34 35
41 35 40 40 44 38 36 35 35 39 41 39 40 41 39 37 34 34 36 37 37 41 41 37 32 28 25 24 31 30 31 33 33 29 30 33 30 31 33 33 34 32 33 34 34
40 37 41 36 40 39 37 37 36 34 36 40 38 37 34 32 32 34 35 34 37 39 37 33 30 31 30 30 30 30 29 30 33 35 31 32 30 29 32 32 33 33 33 33 34
39 41 43 41 41 39 39 37 37 37 34 36 38 37 36 34 31 34 34 34 32 35 35 37 28 29 28 30 30 29 30 31 31 35 35 34 32 33 33 33 33 33 33 34 36
45 45 44 38 37 39 39 38 37 36 37 37 36 32 31 34 35 36 36 35 35 33 33 34 35 32 28 30 31 28 30 30 31 32 30 31 32 33 32 33 33 34 35 36 36

GFSSW_sfc_dewp_102.txt.gz
Dewpoint
55 55 55 55 55 55 55 55 55 55 54 54 53 54 53 53 54 47 43 45 47 53 53 37 32 19 18 18 22 18 6 -0 -1 -1 2 6 5 15 16 12 14 17 24 28 47
56 56 56 55 55 55 55 55 54 54 54 54 53 53 53 53 48 42 48 55 54 54 32 25 20 15 9 11 16 11 5 2 -1 1 3 3 6 4 10 7 9 12 14 21 45
55 55 55 56 55 55 55 54 55 54 55 55 54 53 53 52 42 32 55 57 55 54 28 20 17 13 9 10 12 12 8 4 7 8 8 5 5 7 9 8 10 11 13 22 27
55 55 55 55 55 54 54 54 54 54 54 54 53 53 53 48 30 34 59 57 56 44 26 19 15 12 9 7 10 8 10 8 3 5 12 13 14 14 12 12 11 11 14 23 26
55 55 55 55 54 54 54 54 53 53 53 53 53 52 50 43 37 37 59 57 49 39 24 17 15 11 10 7 8 7 5 8 9 14 17 18 17 16 15 15 15 13 19 24 25
55 55 55 54 54 54 54 54 53 53 52 53 53 52 47 38 35 38 47 46 39 31 22 15 12 11 12 16 14 14 9 16 17 18 19 18 16 19 19 19 15 20 22 23 25
55 55 54 53 53 53 54 54 53 53 53 54 53 49 45 38 41 47 45 43 37 28 21 18 14 14 21 20 21 21 19 18 18 18 19 21 18 19 20 17 21 21 21 24 30
55 54 54 53 53 53 54 54 53 53 53 54 53 48 41 41 41 41 47 43 40 31 27 24 20 16 24 24 22 20 21 16 14 18 18 19 12 17 20 19 20 21 21 25 30
55 53 52 53 54 53 53 53 53 53 53 52 49 47 38 44 40 39 42 40 37 34 30 26 23 20 23 21 19 21 13 12 14 17 17 18 14 18 20 22 21 22 22 23 27
55 53 53 54 54 53 53 52 52 52 52 48 46 44 41 32 36 37 39 38 35 34 30 23 19 17 20 18 13 15 15 13 14 17 17 17 18 20 19 21 20 21 20 23 25
54 54 54 54 53 52 50 46 47 47 46 42 38 36 31 35 42 38 39 37 32 31 23 23 17 17 17 22 18 17 16 15 16 18 20 19 20 20 20 22 22 23 23 24 27
53 53 53 53 53 52 49 44 42 43 39 41 41 38 37 38 35 39 39 33 32 26 22 24 21 18 19 21 20 19 18 16 16 17 21 21 21 20 21 25 31 31 28 27 29
53 53 53 53 52 50 47 44 40 44 40 35 36 39 37 38 35 37 35 32 30 26 25 22 17 18 22 21 21 19 18 17 14 21 21 22 22 21 23 27 33 35 35 36 33
52 53 53 53 47 44 38 41 43 44 35 27 35 38 37 37 34 34 35 30 28 25 24 22 20 20 21 20 19 18 17 17 16 19 16 23 13 21 22 25 34 37 39 39 42
51 52 53 52 48 43 40 45 43 46 21 29 36 39 37 32 30 32 34 27 24 22 23 21 20 20 21 20 21 19 17 22 23 21 20 21 16 17 23 23 35 38 41 44 45
51 51 52 48 47 44 43 44 42 34 23 28 36 35 34 32 30 32 31 26 25 23 22 21 23 22 20 19 21 22 24 25 26 22 19 19 17 13 18 24 35 37 39 41 42
51 52 52 48 41 41 45 41 32 25 23 28 33 33 30 29 28 29 29 27 24 23 23 21 20 23 24 23 25 25 26 19 17 16 15 18 18 19 29 30 33 37 39 41 42
50 50 49 47 44 46 41 37 29 17 22 35 31 31 29 28 28 28 28 25 25 22 19 20 19 22 24 25 23 25 26 18 19 14 12 24 19 21 33 33 36 38 39 40 41
50 46 43 44 46 46 38 29 27 24 25 25 31 29 29 28 27 27 28 27 26 26 25 23 21 20 23 25 25 24 24 24 25 26 24 23 27 34 35 36 37 37 38 39 39
48 45 39 46 48 46 32 21 20 25 31 34 29 29 29 29 29 27 27 28 26 27 28 26 24 24 26 29 31 29 28 27 25 24 24 21 23 24 34 35 36 36 37 38 37
48 37 44 48 47 41 27 20 19 19 33 33 29 29 31 30 29 28 27 31 27 27 28 29 29 30 32 29 26 28 26 28 30 33 28 24 24 32 33 35 36 35 37 37 36
44 35 44 48 41 38 32 28 29 28 31 29 34 32 34 33 32 32 35 33 38 32 28 30 32 28 27 31 32 31 28 30 32 29 30 29 25 34 36 35 37 35 36 35 35
42 37 40 45 35 36 35 35 31 31 33 31 30 32 34 35 35 36 38 42 41 40 32 34 32 30 32 32 33 30 30 31 33 34 32 32 25 34 34 36 37 36 34 35 35
44 33 34 44 44 40 36 37 36 36 34 34 36 39 37 36 37 38 39 39 43 43 45 43 37 33 30 30 33 32 30 31 33 35 29 25 27 34 35 35 36 36 35 33 35
43 35 36 29 35 36 39 37 34 37 38 40 39 38 39 36 34 35 38 38 39 43 39 41 37 37 37 33 32 30 28 29 30 29 28 25 33 33 35 35 35 37 36 35 34
41 39 42 39 35 34 36 34 38 38 39 38 38 37 41 40 38 34 34 36 36 38 39 41 36 36 33 32 30 28 27 28 27 27 28 30 27 29 32 35 36 37 35 34 35
47 47 41 37 32 30 34 35 37 37 40 40 40 40 40 39 43 44 41 40 39 37 39 39 35 34 28 29 27 25 25 26 28 29 29 26 28 31 35 35 37 38 36 35 35

GFSSW_sfc_dewp_105.txt.gz
Dewpoint
56 56 56 56 56 56 55 55 55 55 54 54 55 54 54 54 54 47 43 46 45 58 52 35 32 28 21 16 17 14 11 5 4 -2 0 -2 3 6 8 7 7 11 14 29 39
56 56 56 56 56 56 55 55 55 55 55 55 55 54 54 54 48 40 45 59 56 54 33 29 27 24 14 13 15 14 8 6 0 -1 -2 -1 3 3 8 9 5 8 10 17 26
55 55 55 55 56 55 55 55 55 54 55 55 55 54 54 52 44 32 61 60 59 52 33 25 22 18 13 9 10 10 7 1 -0 3 4 4 3 2 4 7 7 8 10 10 19
55 55 55 55 55 55 54 55 54 54 54 54 54 54 54 47 30 40 58 60 57 44 34 23 16 14 10 6 6 7 7 4 4 4 5 4 5 6 9 11 9 8 12 11 19
56 55 55 55 55 54 54 54 54 54 53 53 53 53 50 44 38 43 59 57 52 45 32 22 17 14 9 6 7 7 7 5 5 4 5 10 11 13 10 11 11 11 11 11 19
55 55 55 55 54 54 54 55 55 54 53 53 54 53 47 41 36 38 42 46 37 36 27 20 15 13 10 8 7 6 5 3 5 9 11 13 12 11 14 16 16 16 14 14 21
55 54 55 54 54 54 55 55 54 54 53 53 55 51 45 41 37 37 41 40 34 32 22 19 15 13 12 12 11 9 12 11 6 14 16 16 14 13 16 18 17 16 19 20 21
54 54 55 54 54 54 55 54 53 53 53 54 54 48 42 41 42 41 40 38 35 30 22 19 14 13 13 17 18 14 14 13 12 13 14 16 12 13 17 19 19 21 20 20 23
54 54 54 54 54 54 54 53 53 53 54 52 49 47 40 45 39 38 40 36 35 29 27 21 19 15 12 19 18 17 11 10 9 13 14 16 12 18 19 20 21 22 22 21 27
54 54 54 54 54 54 53 52 52 52 52 48 47 46 43 36 36 37 38 38 36 30 28 25 21 15 11 14 10 11 12 11 10 15 15 15 15 17 19 20 21 21 21 23 24
54 54 53 54 54 53 51 43 46 48 48 42 39 39 32 34 35 36 37 36 32 32 28 25 19 14 12 16 13 13 14 13 13 14 17 17 17 17 20 21 20 21 22 23 25
53 53 53 53 53 53 50 40 39 39 38 41 43 39 37 33 35 34 36 35 31 28 28 23 19 17 12 13 15 15 15 16 15 15 18 20 19 20 22 22 23 25 26 25 25
52 52 52 53 52 50 44 40 38 39 38 35 32 33 36 35 34 36 33 32 29 27 25 20 19 16 14 14 17 19 16 17 14 15 16 17 19 22 21 23 27 29 29 28 27
52 52 51 52 47 43 34 39 41 46 35 25 28 29 30 34 34 35 34 32 28 26 23 20 20 18 15 15 18 19 17 15 15 15 13 18 12 21 24 23 27 32 33 33 32
50 50 51 52 45 39 34 37 40 44 20 19 25 34 33 33 30 34 36 31 28 27 25 22 22 18 17 18 19 18 16 17 18 17 16 14 15 17 22 22 28 33 34 37 41
50 50 50 45 45 43 40 40 42 33 21 18 33 34 32 32 30 31 34 33 29 26 25 23 23 20 20 18 18 18 18 18 18 19 16 17 18 16 21 23 28 34 38 42 42
49 50 49 45 39 35 38 37 23 18 18 16 27 32 32 30 28 30 31 30 24 25 23 21 20 20 20 19 20 20 21 17 18 17 14 18 15 21 25 23 32 35 37 40 43
49 48 46 44 43 44 43 32 20 12 16 18 35 32 29 28 27 28 30 25 25 24 21 21 19 20 21 22 19 20 24 18 21 17 14 19 20 18 25 29 32 37 39 41 42
49 42 40 39 41 42 39 27 15 16 12 16 24 25 36 26 25 28 28 26 25 25 24 21 21 18 21 22 22 23 21 23 22 27 29 20 23 32 32 29 34 37 39 41 41
43 40 39 43 47 44 39 29 21 12 10 27 34 31 32 37 31 27 27 27 26 25 26 28 23 23 20 21 22 23 26 26 27 29 25 25 27 26 32 31 35 37 39 40 40
45 35 45 46 47 43 32 24 21 18 11 18 30 31 25 33 37 35 30 27 28 26 25 27 29 28 20 21 21 22 27 32 33 28 29 24 27 36 39 34 35 36 38 39 38
38 33 46 46 41 37 30 26 36 21 21 19 33 26 26 34 35 38 38 39 38 30 25 28 32 36 23 23 24 28 26 33 31 31 31 32 31 33 36 39 43 36 37 37 37
38 35 37 45 35 32 34 33 33 32 27 23 26 23 27 28 32 38 40 39 41 36 37 35 30 33 36 31 31 31 32 33 32 35 31 33 31 33 32 38 40 35 36 37 37
41 32 42 48 42 39 36 32 34 37 36 40 39 38 39 36 29 33 40 43 40 39 47 45 38 32 31 34 34 30 28 28 33 38 31 27 27 33 34 34 36 36 37 36 37
41 33 38 32 36 36 36 37 33 36 38 36 38 36 35 33 33 30 36 43 42 42 43 45 40 35 33 37 39 34 26 25 29 32 36 27 26 37 41 39 35 36 36 35 35
40 40 38 36 36 35 36 33 36 34 36 38 37 39 41 37 39 36 35 39 39 41 41 44 40 37 36 35 33 29 31 32 30 30 25 24 25 34 39 40 36 35 35 35 36
47 46 44 37 34 30 33 32 34 38 37 39 41 38 38 42 43 45 46 43 40 41 42 42 41 36 34 30 26 27 29 30 28 27 25 23 26 28 33 35 37 38 37 36 37

GFSSW_sfc_dewp_108.txt.gz
Dewpoint
56 56 56 56 57 56 54 54 56 55 54 54 54 54 54 54 54 46 42 45 48 59 50 32 29 27 24 21 17 15 10 9 6 4 2 -2 0 5 7 4 4 4 8 28 46
56 56 56 56 56 56 55 55 55 55 54 54 55 54 53 55 48 42 47 56 62 61 38 30 28 25 22 18 15 13 11 8 7 4 2 -1 -0 2 5 7 9 8 11 13 28
58 56 56 56 56 56 55 54 55 54 54 53 54 55 55 52 43 36 64 59 59 55 37 30 25 23 21 16 11 10 12 11 5 4 1 2 3 1 4 6 8 8 7 7 10
56 56 55 55 55 55 54 54 54 53 54 54 53 53 54 48 34 39 61 62 61 42 37 28 23 22 19 13 9 6 10 10 6 4 3 3 5 4 4 5 7 9 9 10 13
55 54 54 55 55 55 54 54 53 54 54 54 53 53 51 45 41 40 61 59 48 41 33 28 23 19 16 12 9 6 4 6 6 4 3 4 4 3 6 10 11 11 12 12 15
55 55 55 55 55 55 55 55 55 55 54 53 53 54 49 42 39 39 43 50 41 39 32 27 22 17 13 11 7 7 5 5 5 5 5 4 2 9 11 14 13 14 15 14 14
55 54 55 55 55 55 55 55 54 54 53 53 53 52 47 43 40 34 37 43 38 39 34 27 22 17 14 12 10 8 6 6 4 5 4 9 9 11 14 13 16 18 19 17 18
54 54 54 54 54 54 54 54 54 54 53 53 53 51 45 42 44 41 39 38 37 31 30 24 20 16 14 13 10 9 9 7 8 12 3 11 12 14 16 15 16 17 17 19 21
54 53 54 54 54 53 53 53 53 53 54 54 50 48 41 47 40 40 39 38 37 32 29 21 19 16 13 10 10 13 12 10 9 10 10 9 12 14 15 17 21 21 22 22 25
54 52 53 53 53 53 53 53 52 52 51 49 47 45 43 38 38 38 39 38 36 32 26 22 17 14 12 8 7 14 15 13 11 11 9 11 14 16 19 20 21 22 22 24 26
53 53 52 52 52 52 50 45 41 47 49 43 41 42 32 37 36 37 37 38 35 31 25 25 19 16 14 13 10 14 14 13 11 12 14 15 16 16 18 21 21 23 25 27 29
50 51 52 52 52 51 49 44 31 36 33 38 41 40 41 40 33 34 37 35 34 30 27 24 21 19 15 12 10 13 12 12 14 13 17 18 17 18 18 19 22 25 25 27 30
49 50 50 51 51 48 47 43 32 35 34 32 31 29 36 38 35 33 35 35 32 31 28 25 23 21 18 16 13 13 13 13 15 14 15 17 18 22 20 21 23 24 28 28 32
49 50 50 51 46 41 34 31 33 40 31 22 21 29 29 32 30 33 34 34 33 29 28 27 26 22 20 17 13 14 14 15 16 18 13 18 14 23 23 25 23 26 32 30 32
49 50 50 50 43 38 35 38 35 38 20 15 25 27 28 27 27 30 33 33 32 29 28 25 24 23 19 17 15 15 17 17 17 17 18 17 16 17 22 23 26 32 34 34 43
49 50 50 44 42 42 42 38 37 29 17 17 21 28 27 26 24 28 30 34 31 28 26 25 24 21 19 18 16 17 18 18 18 16 15 17 16 15 20 25 26 32 33 38 44
49 49 48 43 37 35 36 37 29 22 15 14 15 24 34 28 25 27 30 33 30 28 27 25 23 22 22 19 19 20 21 15 15 16 14 17 15 19 28 29 27 32 39 43 46
49 48 45 42 42 42 41 34 26 20 18 16 13 14 30 38 35 27 29 31 32 28 25 25 20 22 22 21 19 20 22 16 17 15 14 18 18 18 30 37 39 36 40 43 45
47 41 39 38 40 43 41 34 23 22 19 16 14 14 19 35 38 39 32 31 32 31 27 24 21 20 22 19 20 20 18 21 22 28 32 26 21 23 25 35 37 38 39 42 43
42 42 41 41 43 41 41 32 27 25 22 20 17 13 20 34 36 38 39 39 31 30 30 26 24 22 19 21 21 22 21 22 22 29 27 29 27 24 27 35 39 39 40 42 43
43 35 40 45 44 43 31 25 25 24 30 32 29 16 13 23 37 36 37 40 33 27 26 27 30 29 27 21 20 20 25 29 33 30 31 28 35 43 42 43 38 37 40 42 41
41 35 44 45 40 36 30 27 33 33 38 33 32 18 16 30 31 37 36 40 41 42 42 28 36 36 30 21 22 21 24 32 36 32 32 31 36 46 45 48 44 46 40 39 39
40 36 36 42 38 37 37 36 35 34 38 37 32 29 31 26 30 29 38 42 44 44 43 36 32 36 33 31 29 21 21 28 36 39 36 33 33 40 40 40 41 45 49 40 39
42 32 41 47 43 40 36 34 33 32 36 37 35 36 35 32 33 29 37 40 45 46 47 45 35 35 32 31 33 27 25 30 34 38 35 31 32 34 35 38 41 43 47 41 38
43 36 40 36 34 33 34 34 34 36 35 34 37 35 38 35 33 34 40 42 45 46 42 45 36 38 39 36 41 38 30 29 29 33 33 29 31 35 36 39 41 42 39 37 37
40 39 40 38 37 33 33 35 34 34 35 33 34 34 38 36 36 37 40 41 38 42 42 43 39 39 37 41 37 35 37 34 34 34 31 31 33 43 40 40 38 37 36 35 36
45 43 41 38 35 31 31 35 33 37 36 36 38 37 36 38 42 46 45 45 45 41 40 41 38 37 33 35 38 35 38 38 34 31 28 31 33 41 41 40 41 41 37 38 39

GFSSW_sfc_dewp_111.txt.gz
Dewpoint
58 58 57 57 57 56 54 53 54 54 54 53 53 53 53 53 53 49 45 48 51 55 58 40 32 31 28 26 23 20 13 11 12 11 8 8 2 7 9 6 8 10 19 50 53
57 58 58 57 56 56 56 54 54 54 53 53 53 55 55 55 49 46 49 56 57 59 45 39 33 27 25 23 20 19 13 12 12 10 7 6 3 3 8 9 10 13 12 30 41
55 55 55 56 56 55 55 53 53 53 53 53 53 52 54 53 45 38 62 62 57 59 48 36 34 27 23 23 18 16 13 13 12 10 8 7 3 5 8 10 15 13 12 14 16
55 55 55 55 55 55 55 53 53 53 53 52 53 54 54 50 33 38 62 64 60 52 43 37 32 26 22 21 21 15 12 12 12 12 10 6 6 6 7 7 10 11 15 13 12
55 54 54 55 55 55 53 53 53 54 55 54 53 52 50 46 45 43 59 62 56 50 39 35 31 25 22 21 19 14 10 9 11 11 8 6 4 5 5 8 13 12 14 15 14
55 55 54 55 55 55 54 53 52 53 54 54 53 53 48 42 43 42 43 52 44 43 38 36 29 26 21 20 17 14 10 8 6 7 6 6 6 6 8 13 15 16 16 15 15
55 55 53 53 53 51 52 53 53 54 54 54 53 50 46 43 43 44 44 50 45 39 37 35 30 25 22 16 15 14 11 8 6 5 6 8 6 6 8 14 15 15 16 18 19
54 54 51 51 51 51 51 52 53 54 53 54 54 49 43 47 47 47 46 42 45 40 38 33 29 26 24 17 14 11 10 6 7 8 6 6 3 13 13 14 17 17 19 19 20
53 53 53 53 53 53 53 53 53 54 53 54 52 50 44 48 46 45 44 40 38 39 37 35 28 25 21 15 12 12 8 8 7 10 11 5 3 12 17 16 18 18 21 19 20
51 51 51 51 51 53 52 52 51 52 51 50 48 45 45 31 39 41 42 41 37 37 32 29 26 19 16 12 8 9 8 8 13 10 11 10 5 5 14 19 19 23 23 24 26
49 50 50 51 51 51 50 44 42 46 48 44 42 42 35 35 40 39 39 39 38 37 30 27 20 16 15 14 11 10 10 12 16 16 14 11 11 11 16 21 21 21 24 27 26
48 50 50 50 51 51 48 42 42 38 30 40 42 41 42 42 39 39 38 36 36 33 31 26 20 19 16 15 13 12 9 9 15 16 13 15 17 16 20 22 22 26 24 26 30
49 50 50 50 50 48 43 44 47 46 32 31 33 37 39 40 38 37 36 35 35 33 31 26 23 22 18 16 14 11 9 10 14 16 16 19 20 22 28 26 23 26 26 28 32
49 49 49 50 44 41 35 33 40 37 27 21 19 29 32 30 30 38 38 35 34 33 32 28 25 23 21 19 15 11 12 12 14 15 17 18 14 21 24 21 23 27 27 27 38
49 49 50 50 44 40 34 40 41 37 21 16 18 26 29 28 28 30 38 35 33 33 32 30 27 25 22 20 19 17 17 14 15 18 19 18 17 16 21 20 18 27 31 37 42
49 49 49 45 42 44 43 41 38 30 22 17 16 14 22 31 28 28 30 34 34 33 32 30 30 28 26 25 21 20 18 17 17 17 17 17 18 17 19 20 18 25 33 46 49
49 49 47 44 39 39 38 38 33 28 20 16 16 17 17 21 35 39 30 28 31 30 30 31 29 27 27 24 24 18 17 16 18 16 15 17 17 17 26 36 24 25 44 46 47
48 48 45 42 42 43 42 37 28 21 23 23 19 18 18 27 34 37 37 34 30 31 29 28 27 25 25 24 18 16 19 19 15 16 15 17 15 15 24 38 33 43 45 46 45
48 42 41 42 41 42 42 31 23 21 20 21 22 22 22 30 36 37 39 38 30 32 28 26 27 30 26 23 21 19 18 20 20 33 30 30 27 24 33 38 40 42 44 47 47
44 42 41 42 44 41 39 32 35 30 27 25 27 28 27 28 31 35 35 38 41 41 35 29 27 28 28 26 25 21 22 19 19 26 25 30 34 35 41 38 37 39 43 44 44
41 37 36 48 46 43 35 30 27 28 32 37 35 32 31 31 30 35 35 36 42 44 44 35 36 33 36 26 20 21 21 23 29 31 27 26 33 45 44 45 43 41 41 41 41
39 32 37 50 40 40 33 37 39 33 34 36 35 33 31 33 30 36 35 37 42 41 40 41 36 33 33 35 31 21 20 31 32 28 32 33 35 47 46 48 49 48 47 43 41
37 35 40 45 36 36 38 35 34 34 37 39 35 34 33 35 32 35 36 39 43 42 43 44 37 33 34 35 33 29 24 32 36 37 33 31 36 43 46 49 49 49 49 50 48
38 34 39 45 42 36 36 34 33 36 38 38 34 38 36 34 36 33 33 42 44 44 46 45 41 34 32 33 34 29 27 29 32 35 36 36 38 40 43 44 45 46 48 49 50
41 37 38 32 32 35 35 34 32 37 40 39 34 34 36 35 34 33 36 40 43 46 46 43 39 40 37 36 37 37 35 30 33 36 36 37 37 39 38 42 45 46 45 44 44
37 36 38 35 35 33 34 33 35 36 38 35 36 37 37 36 36 35 39 39 39 45 42 44 40 41 39 41 38 37 37 37 33 40 40 37 38 45 43 45 46 46 45 43 37
43 43 39 35 33 33 33 37 38 39 38 38 37 36 35 39 41 42 45 45 45 43 40 41 41 35 35 37 37 34 37 38 38 40 39 37 37 43 44 44 45 44 41 38 39

GFSSW_sfc_dewp_114.txt.gz
Dewpoint
57 56 57 57 56 55 55 53 53 53 53 53 53 54 53 53 53 49 44 46 50 54 56 46 41 35 30 27 26 22 17 14 14 14 14 13 4 6 8 9 10 13 48 58 62
56 56 56 56 55 55 53 53 53 53 54 53 53 53 53 52 49 46 50 52 54 59 47 41 39 33 26 26 25 20 18 16 13 13 12 10 9 7 6 8 12 12 20 52 54
55 56 55 55 55 55 55 52 53 53 54 54 53 53 54 51 46 43 56 59 57 57 49 43 39 29 25 24 22 17 17 16 14 14 14 12 8 5 5 6 10 13 13 22 38
55 54 54 54 55 55 55 54 53 53 53 53 54 54 53 48 20 37 64 65 63 53 50 45 36 30 24 22 23 19 17 16 15 14 15 12 10 6 6 5 9 10 17 14 14
55 55 54 54 54 54 53 53 53 52 52 52 53 53 50 44 42 43 55 58 57 49 49 42 36 30 25 22 22 21 20 18 14 13 12 12 10 5 3 7 9 12 14 15 15
54 51 54 51 53 51 52 53 52 53 53 53 52 53 47 38 39 41 42 45 52 47 45 40 35 33 26 23 22 21 21 20 15 9 10 10 9 7 7 8 9 15 16 15 15
53 53 54 53 53 53 53 52 52 53 53 52 52 50 46 38 41 41 41 41 49 49 42 39 36 31 26 23 22 21 18 17 13 10 7 8 7 7 8 10 9 13 14 16 17
50 51 50 50 50 51 52 53 53 53 52 52 52 51 44 44 44 44 44 45 43 46 43 40 37 35 30 25 23 15 17 15 14 10 9 7 4 8 11 9 12 15 15 17 19
49 50 50 49 49 50 51 52 52 51 50 52 50 48 39 48 46 46 46 42 43 46 40 37 35 30 27 23 22 15 12 9 9 9 8 6 5 9 10 14 13 15 18 19 20
49 50 50 50 50 50 51 51 50 50 49 50 48 47 44 38 41 43 46 44 42 42 40 38 33 28 25 20 18 16 10 10 9 12 10 8 9 9 10 13 17 18 18 21 20
49 49 50 50 50 50 48 43 35 40 46 43 42 43 39 37 37 35 42 42 42 39 35 34 29 27 27 24 18 14 10 11 11 11 14 11 9 12 12 10 12 20 19 22 22
48 50 50 50 50 50 46 41 35 40 41 44 42 41 41 36 33 33 37 38 38 36 35 32 28 26 24 22 18 13 11 11 12 15 16 16 16 15 14 12 18 23 21 24 26
49 49 50 50 50 46 43 42 43 40 38 35 37 38 38 39 38 37 38 37 35 35 35 31 27 28 21 18 16 14 11 12 11 12 17 16 16 20 20 21 22 27 25 28 29
49 49 49 49 43 41 37 35 40 40 32 27 23 27 33 36 34 37 38 37 35 33 35 33 31 25 22 18 15 13 14 13 13 13 13 18 13 17 21 19 21 25 27 49 59
49 49 49 48 42 39 40 41 42 39 19 19 18 30 33 33 29 33 37 35 34 34 34 32 31 29 21 19 17 15 17 16 14 14 16 18 15 17 20 19 20 26 35 56 59
49 49 49 44 43 42 43 43 39 31 19 18 20 25 20 23 31 35 36 36 35 33 35 34 33 30 27 23 22 21 21 18 17 14 13 14 17 17 17 18 22 30 47 55 55
49 49 48 45 39 39 40 39 30 25 21 20 19 21 23 23 26 37 38 38 37 33 31 33 33 32 28 25 26 24 19 17 15 15 13 17 17 18 20 23 26 44 51 52 53
48 48 45 43 44 43 41 35 25 19 22 23 20 25 23 27 37 37 36 34 35 39 33 30 30 31 31 28 25 25 22 17 14 17 15 17 16 16 22 35 34 46 49 50 50
47 40 41 42 42 42 42 30 23 23 21 23 27 23 26 27 31 35 36 36 38 38 38 31 30 31 31 30 28 26 23 20 21 31 24 26 31 29 37 39 44 45 46 46 47
42 40 38 45 50 40 38 31 33 34 31 33 30 26 26 28 29 32 34 36 35 38 43 39 31 30 30 32 29 26 21 19 23 25 22 28 32 33 41 43 43 44 44 45 46
39 35 38 40 47 41 33 33 32 34 35 37 35 34 32 31 32 31 33 35 37 41 43 43 39 35 32 32 30 26 21 22 25 28 24 23 28 42 44 46 44 44 45 45 46
38 30 34 39 36 38 35 37 39 36 35 37 38 37 35 35 35 33 35 36 40 40 36 43 41 35 35 38 38 35 32 26 25 28 28 29 30 46 46 48 48 48 46 45 44
35 34 39 46 30 32 35 34 35 35 38 39 38 37 36 34 35 35 37 39 40 39 39 43 40 32 35 37 37 34 33 30 31 33 31 29 33 46 47 48 49 48 49 45 41
37 31 36 37 36 34 34 34 32 35 37 39 38 37 35 35 36 34 36 40 40 40 43 43 42 33 30 33 35 31 26 30 31 30 33 32 38 43 45 46 49 50 50 49 47
37 32 36 28 29 33 33 32 34 33 37 39 38 35 35 33 35 34 35 41 43 44 43 44 39 38 37 34 35 37 37 34 29 32 30 37 36 41 43 45 46 49 52 50 46
32 33 36 33 32 32 31 33 32 34 37 37 38 37 36 35 36 35 37 39 38 44 42 44 40 39 38 36 35 37 37 37 37 39 39 39 38 43 44 47 47 48 48 46 39
40 38 37 32 30 30 31 34 35 36 39 37 39 37 35 37 41 41 41 43 44 43 40 40 41 37 35 38 35 32 38 39 40 41 41 38 41 46 46 45 47 47 44 39 41

GFSSW_sfc_dewp_117.txt.gz
Dewpoint
55 55 56 55 55 55 54 54 52 53 53 53 53 53 53 53 52 49 45 44 49 53 57 43 43 38 32 27 26 24 21 19 15 13 12 14 10 10 11 7 9 13 41 61 67
55 55 54 54 55 55 55 53 53 53 53 53 54 52 53 52 47 46 49 52 53 55 48 37 37 35 30 26 25 23 19 16 18 16 13 12 10 10 7 7 8 13 39 62 68
53 53 54 54 54 54 54 54 52 53 54 54 54 54 54 50 42 31 51 61 55 54 46 37 39 30 27 24 23 20 16 18 16 15 14 14 12 11 6 6 10 12 26 40 59
52 53 52 53 53 53 52 52 52 52 52 53 53 53 54 47 7 32 59 57 61 51 50 43 39 32 25 23 23 18 18 18 17 16 16 15 14 10 9 7 9 9 14 17 42
52 52 52 52 53 53 52 52 51 51 51 51 52 52 50 42 40 41 50 45 55 50 47 41 35 33 25 24 23 21 21 20 17 16 16 15 12 12 10 10 10 9 15 18 15
50 50 50 50 50 51 52 52 52 52 52 52 50 52 47 37 38 39 39 41 51 50 48 42 40 34 29 26 23 23 21 18 19 19 14 12 12 12 11 12 9 10 13 15 14
48 49 49 49 49 50 51 51 51 51 50 51 50 47 44 39 39 39 40 40 39 48 46 45 39 35 32 26 24 23 21 22 19 20 17 15 11 11 12 11 9 10 11 14 17
50 50 49 49 49 49 51 51 51 51 51 51 51 45 39 43 43 43 43 42 43 38 42 42 40 35 28 28 25 18 21 19 19 15 12 10 10 11 11 9 10 11 12 15 17
49 50 49 48 49 49 50 50 51 50 50 50 46 47 39 46 44 45 44 40 40 42 43 44 37 34 30 30 26 22 17 14 16 15 13 9 11 11 10 11 11 12 13 16 17
49 49 50 50 50 50 50 50 49 48 49 47 47 44 42 36 43 43 46 43 40 41 43 43 34 33 30 26 22 19 13 13 11 11 10 10 8 8 11 10 12 12 16 17 19
49 49 49 50 50 50 47 43 28 38 45 41 40 41 39 37 41 37 45 44 42 42 41 39 34 30 30 28 25 20 17 11 11 11 11 11 11 12 12 13 11 14 17 19 22
49 50 50 50 50 49 46 40 37 41 35 38 39 40 41 40 36 36 38 40 38 37 40 35 35 34 29 26 24 22 17 13 13 14 12 13 13 17 17 15 12 13 15 20 22
50 50 50 50 49 45 40 39 42 40 35 33 35 36 38 39 38 38 37 35 35 35 37 34 30 34 30 28 25 22 20 13 12 17 16 16 15 16 19 20 17 17 18 23 22
49 49 49 49 42 40 38 36 41 41 32 30 29 31 35 37 35 39 38 35 32 32 35 35 34 31 28 26 23 21 19 14 14 15 10 16 11 16 19 21 21 23 25 39 58
48 49 48 48 43 39 39 41 40 39 17 17 22 32 36 33 30 33 38 36 32 34 35 34 34 33 27 26 23 20 17 15 16 14 12 14 14 16 20 19 21 30 54 58 59
48 48 48 43 43 41 41 41 39 30 17 19 21 23 26 25 23 33 39 38 36 34 35 33 35 34 31 26 23 20 17 17 17 15 12 12 14 16 17 18 21 44 57 57 57
47 47 46 44 40 40 40 38 28 23 21 19 20 25 26 23 24 38 37 37 35 34 34 34 32 34 33 29 25 22 19 18 16 14 13 14 16 15 21 23 31 52 55 55 56
47 46 41 39 44 44 41 33 22 18 22 19 24 27 25 25 34 35 37 35 37 38 37 33 31 34 33 30 27 21 20 19 15 15 14 17 16 16 22 31 37 54 54 54 54
46 38 39 41 43 43 40 26 20 23 22 30 30 27 26 26 29 32 34 35 34 36 36 36 31 34 34 31 29 25 23 21 20 29 19 18 25 34 40 44 50 51 53 52 52
38 37 37 41 45 45 35 32 31 34 32 35 30 29 28 27 31 30 32 36 35 39 43 38 34 31 33 34 32 27 26 22 22 22 19 26 28 25 40 42 46 49 49 48 50
36 34 34 37 48 39 32 34 35 37 39 37 36 35 34 32 33 32 31 35 37 39 41 41 38 34 33 33 30 31 28 26 24 27 23 25 29 41 41 43 44 46 46 48 49
35 26 32 41 33 33 32 35 38 37 36 36 38 37 36 37 34 35 31 34 39 41 36 39 38 35 35 33 34 34 28 27 24 25 27 28 29 45 45 45 46 47 47 48 49
32 31 38 42 26 31 31 29 33 37 35 38 37 39 37 34 32 34 35 39 41 39 39 41 38 33 35 37 39 34 34 29 29 33 29 26 33 46 47 46 46 45 47 48 48
36 30 33 34 31 31 30 28 31 32 33 34 35 38 35 33 36 35 35 39 40 40 45 41 38 36 30 33 35 33 32 31 29 31 32 28 40 43 45 46 47 47 47 45 45
36 32 33 26 27 30 30 30 32 32 35 37 37 36 35 34 31 33 37 37 41 42 44 41 36 38 37 35 35 33 32 31 29 27 29 36 39 43 44 44 45 47 44 43 41
32 33 35 32 31 28 29 30 32 34 35 35 36 37 36 35 34 33 36 37 37 42 42 43 36 39 37 36 34 36 38 33 31 34 35 38 38 43 46 46 46 47 46 43 43
40 40 36 30 30 28 28 30 33 35 35 34 37 37 35 37 40 38 41 40 40 40 40 39 36 38 35 35 37 34 38 39 40 40 38 35 39 44 45 46 47 47 48 45 44

GFSSW_sfc_dewp_123.txt.gz
Dewpoint
52 52 52 52 52 53 53 52 52 53 53 53 54 54 54 54 53 47 44 44 46 51 50 46 50 44 32 28 25 24 12 6 4 7 1 13 8 12 11 12 12 13 42 50 68
50 50 50 49 50 51 51 51 52 52 52 53 52 52 53 54 46 43 46 51 53 52 47 40 39 40 31 28 25 20 16 9 15 10 6 9 11 12 11 12 12 19 66 66 68
49 49 50 50 49 49 49 49 50 50 50 50 50 52 52 51 40 33 50 51 54 55 48 41 37 33 30 29 25 22 16 15 15 17 14 9 12 13 8 7 12 12 35 67 67
50 49 49 49 49 49 49 50 50 49 50 49 49 49 52 46 20 23 56 49 60 56 46 38 35 32 28 26 26 21 22 18 12 13 19 14 13 14 14 10 13 15 16 27 68
49 49 49 49 49 49 49 49 49 49 49 49 48 50 47 40 37 36 52 44 54 49 42 30 28 31 28 29 26 23 21 20 17 14 16 18 16 15 15 15 17 19 21 19 32
49 49 49 49 49 49 50 50 50 49 49 49 48 50 43 37 36 39 39 39 50 47 44 37 24 26 28 27 27 26 24 21 18 18 16 14 13 17 15 19 19 20 19 18 19
50 49 49 48 49 49 51 50 50 50 50 49 49 45 42 35 37 38 37 39 46 47 44 41 35 28 27 28 27 25 23 23 22 20 18 19 16 16 18 17 17 19 18 19 20
48 49 48 48 49 49 50 50 50 50 50 50 49 44 37 39 40 39 39 39 37 43 42 42 43 35 32 28 26 26 26 22 23 22 19 16 14 13 16 17 17 18 18 20 21
49 49 48 47 48 49 50 49 50 49 50 50 44 43 35 41 40 41 40 37 37 37 39 39 43 36 33 26 22 23 12 21 20 24 22 17 16 17 17 18 19 21 20 19 22
48 48 48 47 47 49 49 49 48 48 45 44 42 39 36 27 38 41 45 41 39 37 35 33 41 35 32 26 13 14 18 18 18 20 22 19 19 15 17 18 20 20 20 21 22
46 47 48 48 48 48 46 40 28 32 35 29 29 32 23 28 38 41 44 41 41 37 29 30 38 33 30 30 20 19 19 17 18 19 21 22 20 18 19 21 20 20 22 23 25
46 46 47 48 48 48 43 36 35 38 32 32 29 27 32 33 30 29 40 39 39 34 29 29 33 35 32 30 29 23 20 19 20 19 21 21 21 23 22 22 21 23 23 23 25
48 48 48 48 48 43 39 37 39 40 33 26 28 29 29 29 27 29 31 30 34 32 30 27 28 30 34 32 30 28 23 20 16 17 19 16 17 19 19 21 21 22 25 26 28
48 48 48 48 40 39 39 39 40 41 27 15 29 30 31 35 32 34 35 28 24 30 32 28 28 28 30 31 31 28 28 22 18 17 13 17 8 20 18 19 23 23 26 26 28
48 48 48 47 42 40 40 40 41 40 10 9 21 33 35 34 27 23 38 35 30 27 31 28 28 26 27 31 32 27 29 26 19 17 16 15 12 13 21 18 20 24 26 29 30
48 48 48 42 42 42 42 41 40 30 13 15 19 21 23 22 22 23 37 38 38 36 34 28 26 33 26 33 32 31 26 26 23 19 15 16 14 12 14 18 19 32 42 46 46
48 48 43 41 38 41 41 39 28 20 17 13 18 22 27 24 25 24 27 33 33 34 34 36 31 30 33 28 33 29 25 19 17 16 12 17 16 16 20 21 19 33 48 53 58
47 46 39 38 38 41 41 36 21 16 16 20 29 30 28 26 26 29 27 28 35 36 32 27 29 30 34 31 32 28 24 15 13 12 11 17 15 14 20 23 38 49 52 53 54
46 38 36 37 40 44 39 28 22 30 30 35 33 28 26 26 31 30 28 27 26 35 31 30 33 37 32 36 31 28 21 20 20 17 14 14 18 23 30 42 50 51 52 53 53
40 36 32 35 45 45 35 27 32 29 35 34 30 34 28 30 33 34 31 30 31 36 38 34 34 35 30 38 34 28 26 20 21 17 12 16 17 16 36 43 49 50 52 53 54
37 29 28 36 46 37 28 25 26 28 35 35 34 33 34 33 35 35 33 32 33 34 38 37 36 31 36 31 32 34 25 21 22 25 18 20 20 40 37 45 48 50 52 53 53
35 24 30 38 26 30 26 29 31 29 33 36 37 36 34 35 35 32 32 36 36 39 37 37 36 32 34 39 37 37 28 25 23 24 24 25 29 46 45 50 50 51 52 52 52
32 31 35 40 25 26 27 25 26 32 32 36 34 36 37 34 34 34 34 34 35 35 36 38 36 30 34 36 39 35 30 27 25 30 28 23 36 45 47 50 49 50 51 50 50
35 26 29 35 28 28 27 24 25 27 28 29 32 36 32 30 35 34 33 34 35 35 42 40 36 32 27 31 35 37 28 25 26 28 26 23 40 44 46 47 50 50 49 49 48
37 30 34 25 25 27 27 27 26 27 30 30 33 30 32 30 30 32 32 33 34 41 42 40 36 35 34 35 36 36 30 26 25 24 25 26 33 43 46 47 49 49 48 46 45
34 33 36 32 28 26 25 24 26 29 29 28 32 31 33 31 32 30 35 34 34 38 37 38 35 37 35 39 37 34 32 28 29 30 29 30 34 44 47 47 48 47 46 45 45
40 40 36 30 27 25 25 26 29 30 29 29 32 32 32 34 38 38 39 38 38 36 35 35 34 34 33 38 34 33 33 32 30 31 33 33 40 46 46 47 47 47 46 45 45